GFSFLT2_con_mucape_000.txt.gz
CAPE
1618 1730 1547 1261 1084 1117 1022 1090 1231 1319 1340 1383 1539 1559 1579 1577 1386 1325 1275 1246 1155 1213 975 709 436 337 571 490 527 508 538 161
1452 1697 1614 1602 1418 395 355 692 736 936 1282 1085 889 1048 1222 1023 779 812 1112 1077 1062 1050 756 539 347 249 140 188 146 316 643 219
1012 1545 1444 1097 656 199 544 547 430 487 703 612 673 969 702 602 380 261 249 629 686 837 680 386 238 70 1 0 3 158 360 272
77 778 771 752 159 266 1351 1430 1322 1118 1036 900 732 648 329 126 173 195 169 161 220 342 296 148 33 120 2 0 0 0 34 21
0 81 468 763 597 693 1065 792 667 431 491 445 443 5 3 122 1 2 4 40 4 46 136 266 260 268 17 1 1 1 4 27
0 2 55 138 112 158 156 28 0 4 198 426 409 282 145 13 23 4 20 8 10 7 119 93 227 366 77 7 14 18 10 10
0 0 0 4 3 0 0 0 0 0 0 0 19 126 135 21 0 0 0 4 19 1 0 90 135 143 81 14 44 7 0 0
0 0 0 0 0 0 0 0 0 0 0 0 0 1 103 214 3 1 83 120 165 66 148 36 116 85 158 169 181 126 21 0
0 0 0 0 0 0 0 0 0 0 0 0 0 0 8 4 0 0 0 9 65 191 151 177 303 217 163 125 91 116 92 14
0 0 0 0 0 0 0 0 0 0 0 0 0 0 0 0 0 0 0 0 0 34 27 47 83 113 93 133 65 77 93 69
0 0 0 0 0 0 0 0 0 0 0 0 0 0 0 0 0 0 0 0 0 0 0 2 3 0 14 161 75 29 148 29
0 0 0 0 0 0 0 0 0 0 0 0 0 0 0 0 0 0 0 0 0 0 0 0 0 0 0 1 177 305 304 120
0 0 0 0 0 0 0 0 0 0 0 0 0 0 0 0 0 0 0 0 0 0 0 0 0 0 0 0 0 159 283 135
0 0 0 0 0 0 0 0 0 0 0 0 0 0 0 0 0 0 0 0 0 0 0 0 0 0 0 0 4 47 164 116
0 0 0 0 0 0 0 0 0 0 0 0 0 0 0 0 0 0 0 0 0 0 0 0 0 0 0 0 0 3 0 5
0 0 0 0 0 0 0 0 0 0 0 0 0 0 0 0 0 0 7 9 0 0 0 0 0 0 0 0 0 0 0 0
0 0 0 0 0 0 0 0 0 0 0 0 0 0 0 0 0 16 48 55 39 44 40 14 6 4 0 0 0 0 0 0
0 0 0 0 0 0 0 0 0 0 0 0 0 0 0 0 0 0 0 18 35 48 57 62 58 38 23 13 1 0 0 0
0 0 0 0 0 0 0 0 0 0 0 0 0 0 0 0 0 0 0 0 0 1 8 23 43 34 26 26 15 0 0 0
0 0 0 0 0 0 1 1 0 0 0 0 0 0 0 0 0 0 0 0 0 0 0 0 14 82 39 55 39 13 7 0

GFSFLT2_con_mucape_003.txt.gz
CAPE
1767 1861 1618 1395 1006 533 597 874 875 1152 1366 1351 1310 1391 1264 926 410 350 545 740 797 804 892 567 250 376 459 497 453 489 511 573
1573 1642 1594 1614 1522 605 337 551 695 825 1014 824 775 985 901 669 482 502 113 307 369 329 474 484 297 250 286 215 212 279 476 221
1696 1885 1818 1316 791 300 824 965 616 695 713 396 476 1257 858 651 288 469 437 87 27 37 71 100 180 126 80 60 31 52 151 375
314 1187 1542 1290 609 323 1283 1388 1076 1041 1036 1010 747 785 802 576 292 244 171 178 158 191 66 50 82 311 190 0 1 0 34 160
9 448 1000 1429 1069 1075 1370 1089 1037 735 743 564 610 182 140 351 371 316 85 0 5 1 41 42 21 41 129 125 6 4 0 5
0 216 518 569 512 590 717 422 235 207 469 447 357 193 211 175 166 65 63 17 5 0 0 0 1 2 1 52 73 19 47 70
0 0 80 269 154 78 14 0 0 0 0 0 3 0 49 23 2 1 1 0 7 22 0 0 56 25 31 5 83 157 55 21
0 0 0 0 2 0 0 0 0 0 0 0 0 0 1 10 3 2 2 11 57 246 188 169 137 103 98 99 150 175 214 70
0 0 0 0 0 0 0 0 0 0 0 0 0 0 0 0 0 0 0 0 1 0 0 15 269 299 323 233 167 207 288 182
0 0 0 0 0 0 0 0 0 0 0 0 0 0 0 0 0 0 0 0 0 0 0 0 0 30 32 78 184 204 151 119
0 0 0 0 0 0 0 0 0 0 0 0 0 0 0 0 0 0 0 0 0 0 0 0 0 0 0 0 9 233 262 135
0 0 0 0 0 0 0 0 0 0 0 0 0 0 0 0 0 0 0 0 0 0 0 0 0 0 0 0 0 76 293 343
0 0 0 0 0 0 0 0 0 0 0 0 0 0 0 0 0 0 0 0 0 0 0 0 0 0 0 0 0 0 0 417
0 0 0 0 0 0 0 0 0 0 0 0 0 0 0 0 0 0 0 0 0 0 0 0 0 0 0 0 0 0 0 18
0 0 0 0 0 0 0 0 0 0 0 0 0 0 0 0 0 0 0 2 1 6 0 0 0 2 10 0 0 0 0 0
0 0 0 0 0 0 0 0 0 0 0 0 0 0 6 14 7 4 7 7 17 39 21 33 53 0 24 5 34 5 0 0
0 0 0 0 0 0 0 0 0 0 0 0 0 0 0 0 0 5 11 11 38 91 111 125 78 88 69 54 59 41 39 0
0 0 0 0 0 0 0 0 0 0 0 0 0 0 0 0 0 0 0 0 0 62 101 92 118 108 108 91 80 72 18 37
0 0 0 0 0 0 0 0 0 0 0 0 0 0 0 0 0 0 0 0 0 0 8 32 24 32 71 81 63 52 63 58
0 0 0 0 0 0 0 0 0 0 0 0 0 0 0 0 0 0 0 0 0 0 0 8 18 26 42 37 45 54 65 60

GFSFLT2_con_mucape_006.txt.gz
CAPE
1972 1948 1607 1526 1243 866 887 932 1103 1372 1440 1351 1446 1548 1006 659 654 496 467 393 341 624 697 752 631 709 668 536 430 364 269 300
1624 1711 2056 1731 1324 840 617 912 988 1127 1345 1180 1412 1186 510 427 347 112 172 214 245 289 342 433 452 406 417 420 266 210 183 247
1805 1768 2042 1668 1424 700 1060 1020 1068 974 790 853 604 1272 789 621 386 261 288 103 12 4 1 0 51 58 293 314 156 53 14 113
426 1060 1541 1670 1180 642 1833 1497 1300 1145 1159 1061 1010 890 510 358 237 204 66 119 153 86 80 38 13 0 83 93 15 4 0 54
52 738 1332 1788 1623 1551 1436 1200 1204 1070 990 849 534 284 249 273 284 248 116 0 0 0 5 28 0 23 32 42 57 1 0 0
9 555 922 980 855 757 882 540 539 440 435 492 458 339 186 162 41 13 0 2 2 2 0 0 0 0 20 4 24 28 3 2
0 110 469 727 463 357 214 100 0 0 5 0 85 79 109 38 0 0 0 1 0 0 0 0 0 0 0 0 0 19 22 13
0 0 49 46 252 79 3 0 0 0 0 0 0 2 11 3 0 0 0 0 0 4 20 19 11 0 0 6 8 10 1 15
0 0 0 0 0 0 0 0 0 0 0 0 0 0 0 0 0 0 0 0 0 0 0 0 0 12 42 69 56 36 42 93
0 0 0 0 0 0 0 0 0 0 0 0 0 0 0 0 0 0 0 0 0 0 0 0 0 0 0 0 0 0 71 98
0 0 0 0 0 0 0 0 0 0 0 0 0 0 0 0 0 0 0 0 0 0 0 0 0 0 0 0 0 0 0 16
0 0 0 0 0 0 0 0 0 0 0 0 0 0 0 0 0 0 0 0 0 0 0 0 0 0 0 0 0 0 0 1
0 0 0 0 0 0 0 0 0 0 0 0 0 0 0 0 0 0 0 0 0 0 0 0 0 0 0 0 0 0 0 0
0 0 0 0 0 0 0 0 0 0 0 0 0 0 0 0 0 0 0 0 0 0 2 0 0 0 0 0 0 0 0 0
0 0 0 0 0 0 0 0 0 0 0 0 0 0 0 0 0 0 0 0 0 0 0 0 0 0 0 0 0 0 0 0
0 0 0 0 0 0 0 0 0 0 0 0 0 6 7 13 23 41 43 26 0 3 2 22 13 0 3 7 3 0 0 0
0 0 0 0 0 0 0 0 0 0 0 0 0 0 0 0 0 2 0 30 23 0 0 0 0 9 2 5 7 0 0 0
0 0 0 0 0 0 0 0 0 0 0 0 0 0 0 0 0 0 0 0 0 0 0 0 0 0 0 0 0 0 0 0
0 0 0 0 0 0 0 0 0 0 0 0 0 0 0 0 0 0 2 0 0 0 0 0 0 0 0 0 0 0 0 0
0 0 0 0 0 0 0 0 0 0 0 0 0 0 0 0 0 0 0 0 0 0 0 0 0 0 0 0 0 0 0 3

GFSFLT2_con_mucape_009.txt.gz
CAPE
1711 1510 1465 1266 993 891 824 908 1252 1477 1442 1348 1451 1043 913 890 785 669 721 633 697 533 523 547 516 423 434 411 444 448 432 446
1677 1732 1555 1259 989 624 785 768 885 1321 1420 1347 955 604 527 492 336 450 316 312 422 377 355 340 266 194 223 230 239 158 133 39
797 1539 1456 1236 1079 512 1039 913 909 975 1016 901 974 893 596 358 291 248 269 164 100 117 146 122 72 4 5 9 56 2 0 1
246 391 929 1012 1071 620 1088 1013 955 989 999 811 814 898 376 205 171 192 201 51 85 78 76 41 56 45 25 0 17 0 0 0
50 560 888 1020 920 1206 1039 808 815 674 692 654 702 663 314 252 156 207 138 0 0 0 0 0 10 25 3 0 0 46 3 10
0 280 438 672 473 941 724 694 520 575 465 303 79 271 90 155 99 31 0 0 0 0 0 0 0 0 0 0 0 11 24 9
0 41 239 265 351 348 320 305 156 125 74 5 0 27 16 12 0 0 0 0 0 0 0 0 0 0 0 0 0 0 3 0
0 0 0 7 0 0 11 18 0 0 0 0 0 0 0 0 0 0 0 0 0 0 0 0 0 1 4 8 2 4 0 11
0 0 0 0 0 0 0 0 0 0 0 0 0 0 0 0 0 0 0 0 0 0 0 0 0 0 0 2 1 9 10 4
0 0 0 0 0 0 0 0 0 0 0 0 0 0 0 0 0 0 0 0 0 0 0 0 0 0 0 0 0 0 0 0
0 0 0 0 0 0 0 0 0 0 0 0 0 0 0 0 0 0 0 0 0 0 0 0 0 0 0 0 0 0 0 0
0 0 0 0 0 0 0 0 0 0 0 0 0 0 0 0 0 0 0 0 0 0 0 0 0 0 0 0 0 0 0 0
0 0 0 0 0 0 0 0 0 0 0 0 0 0 0 0 0 0 0 0 0 0 0 0 0 0 0 0 0 0 0 0
0 0 0 0 0 0 0 0 0 0 0 0 0 0 0 0 0 0 0 0 0 0 0 0 0 0 0 0 0 0 0 0
0 0 0 0 0 0 0 0 0 0 0 0 0 0 0 0 0 0 0 0 0 0 0 0 0 0 0 0 0 0 0 0
0 0 0 0 0 0 0 0 0 0 0 0 0 0 0 0 0 1 2 0 0 0 0 0 0 0 0 0 0 0 0 0
0 0 0 0 0 0 0 0 0 0 0 0 0 0 0 0 0 5 8 5 1 0 0 0 0 0 0 0 0 0 0 0
0 0 0 0 0 0 0 0 0 0 0 0 0 0 0 0 0 0 0 0 0 0 5 0 0 0 0 0 0 0 0 0
0 0 0 0 0 0 0 1 1 0 0 1 1 0 0 0 0 0 0 0 0 0 0 0 0 0 0 0 0 0 0 0
0 0 0 0 0 0 0 0 0 2 8 9 2 6 2 0 0 0 0 0 0 0 0 0 0 0 0 0 0 0 0 0

GFSFLT2_con_mucape_012.txt.gz
CAPE
1395 1427 1237 1085 907 787 794 1076 1333 1419 1542 1584 1302 1156 1141 1029 1053 1113 1064 1069 1036 1029 333 189 473 362 480 529 508 515 574 560
1616 1529 1281 1182 742 719 663 720 998 1251 1285 1072 841 771 749 684 792 702 652 524 503 543 690 571 364 271 227 276 298 255 197 83
1604 1586 1395 1140 947 862 814 799 874 998 1045 1030 641 612 450 239 297 401 247 187 256 348 426 440 335 198 88 67 67 8 0 0
325 673 1229 1316 1020 821 898 883 856 841 669 842 738 740 423 245 147 167 191 149 33 37 12 15 37 44 79 43 39 18 0 0
132 318 830 993 854 654 960 843 822 935 922 745 790 827 507 374 252 109 76 9 0 0 0 0 0 0 0 0 0 0 0 0
12 237 712 717 825 1138 931 702 701 591 527 468 415 237 320 111 90 0 0 0 0 0 0 0 0 0 0 0 0 0 0 13
0 37 131 344 176 785 544 484 381 315 198 24 0 10 0 9 23 0 0 0 0 0 1 2 0 0 0 1 1 4 7 3
0 0 4 11 21 62 98 104 76 19 1 0 0 0 0 0 0 0 0 0 0 0 0 0 0 0 0 0 1 7 14 3
0 0 0 0 0 0 0 0 0 0 0 0 0 0 0 0 0 0 0 0 0 0 0 0 0 0 0 0 0 0 0 0
0 0 0 0 0 0 0 0 0 0 0 0 0 0 0 0 0 0 0 0 0 0 0 0 0 0 0 0 0 0 0 0
0 0 0 0 0 0 0 0 0 0 0 0 0 0 0 0 0 0 0 0 0 0 0 0 0 0 0 0 0 0 0 0
0 0 0 0 0 0 0 0 0 0 0 0 0 0 0 0 0 0 0 0 0 0 0 0 0 0 0 0 0 0 0 0
0 0 0 0 0 0 0 0 0 0 0 0 0 0 0 0 0 0 0 0 0 0 0 0 0 0 0 0 0 0 0 0
0 0 0 0 0 0 0 0 0 0 0 0 0 0 0 0 0 0 0 0 0 0 0 0 0 0 0 0 0 0 0 0
0 0 0 0 0 0 0 0 0 0 0 0 0 0 0 0 0 0 0 0 0 0 0 0 0 0 0 0 0 0 0 0
0 0 0 0 0 0 0 0 0 0 0 0 0 0 0 0 0 0 0 0 0 0 0 0 0 0 0 0 0 0 0 0
0 0 0 0 0 0 0 0 0 0 0 0 0 0 0 0 0 0 0 0 0 3 0 1 0 0 0 0 0 0 0 0
0 0 0 0 0 0 0 0 0 0 0 0 0 0 0 0 1 9 0 0 0 0 0 0 0 0 0 0 0 0 0 0
0 0 0 0 0 0 0 0 0 0 0 0 1 26 25 16 13 9 0 0 0 0 0 0 0 0 0 0 1 0 0 0
0 0 0 0 0 0 0 0 0 0 0 0 0 1 30 26 29 18 12 0 0 0 0 0 0 0 0 0 0 0 0 0

GFSFLT2_con_mucape_015.txt.gz
CAPE
1190 1109 1013 946 842 875 1007 1272 1332 1506 1519 1508 1259 1226 1277 1331 1431 1406 1371 1328 1232 756 285 269 352 424 459 534 457 385 317 236
1357 1245 1102 870 531 621 554 878 1114 1196 1243 1086 847 806 788 988 975 913 836 600 583 636 671 547 427 357 278 162 106 102 16 28
1454 1438 1232 1083 666 544 603 625 838 1037 1119 830 620 536 427 292 430 477 250 233 262 332 398 413 386 331 244 159 70 12 0 0
1524 1474 1407 1134 887 609 701 631 611 663 719 756 712 643 368 215 116 131 134 125 59 14 11 0 0 0 0 3 13 13 11 0
1044 816 854 868 813 786 766 781 752 746 703 560 585 885 487 306 219 127 50 44 1 0 0 0 0 0 0 0 0 0 0 0
1 71 510 550 609 673 685 749 623 719 667 512 582 598 393 252 63 11 0 0 0 0 0 0 0 0 0 0 0 0 0 0
0 21 340 247 574 765 946 623 565 458 309 197 80 4 1 0 0 0 0 0 0 0 0 0 0 0 0 0 0 0 0 0
0 0 20 79 32 216 324 330 269 248 98 8 0 0 0 0 0 0 0 0 0 0 0 0 0 0 0 0 0 0 0 0
0 0 0 0 0 0 0 0 0 0 0 0 0 0 0 0 0 0 0 0 0 0 0 0 0 0 0 0 0 0 0 0
0 0 0 0 0 0 0 0 0 0 0 0 0 0 0 0 0 0 0 0 0 0 0 0 0 0 0 0 0 0 0 0
0 0 0 0 0 0 0 0 0 0 0 0 0 0 0 0 0 0 0 0 0 0 0 0 0 0 0 0 0 0 0 0
0 0 0 0 0 0 0 0 0 0 0 0 0 0 0 0 0 0 0 0 0 0 0 0 0 0 0 0 0 0 0 0
0 0 0 0 0 0 0 0 0 0 0 0 0 0 0 0 0 0 0 0 0 0 0 0 0 0 0 0 0 0 0 0
0 0 0 0 0 0 0 0 0 0 0 0 0 0 0 0 0 0 0 0 0 0 0 0 0 0 0 0 0 0 0 0
0 0 0 0 0 0 0 0 0 0 0 0 0 0 0 0 0 0 0 0 0 0 0 0 0 0 0 0 0 0 0 0
0 0 0 0 0 0 0 0 0 0 0 0 0 0 0 0 0 0 1 10 8 0 0 0 0 0 0 0 0 0 0 0
0 0 0 0 0 0 0 0 0 0 0 0 0 0 0 0 0 2 14 11 0 0 0 0 0 0 0 0 0 0 0 0
0 0 0 0 0 0 0 0 0 0 0 0 0 0 0 0 0 0 14 14 5 0 0 0 0 2 0 0 0 0 0 0
0 0 0 1 1 6 3 0 0 0 0 0 0 0 0 0 0 0 7 23 23 44 0 0 0 0 0 3 0 0 0 0
0 0 0 1 0 0 0 0 0 0 0 0 0 0 0 0 0 0 26 22 58 3 0 8 0 0 0 0 0 0 0 0

GFSFLT2_con_mucape_018.txt.gz
CAPE
743 715 698 656 623 722 873 1077 1155 1338 1310 1201 1072 1112 1219 1324 1329 1327 1170 1199 1232 938 595 736 673 516 422 286 213 199 109 51
1045 913 789 559 260 430 446 762 1019 1105 1108 802 657 553 676 855 561 678 443 445 514 618 641 607 516 415 331 229 102 21 0 34
1163 1112 962 821 437 350 398 441 686 915 901 615 455 379 260 139 379 284 121 117 144 168 185 176 183 182 148 103 69 20 0 0
1243 1250 1168 964 685 380 446 395 401 505 662 539 478 447 239 59 3 34 17 28 38 9 3 1 0 0 0 0 0 3 7 12
1310 1204 1115 1043 825 519 368 477 494 468 454 491 427 569 467 174 92 62 4 0 0 0 0 0 0 0 0 0 0 0 0 0
966 663 159 303 509 536 490 440 537 432 513 508 401 387 465 240 107 13 0 0 0 0 0 0 0 0 0 0 0 0 0 0
371 0 52 104 240 280 329 364 532 356 345 226 191 185 30 2 0 0 0 0 0 0 0 0 0 0 0 0 0 0 0 0
4 0 20 14 66 259 400 604 396 263 295 183 37 0 0 0 0 0 0 0 0 0 0 0 0 0 0 0 0 0 0 0
0 0 0 0 0 0 2 3 3 6 5 0 0 0 0 0 0 0 0 0 0 0 0 0 0 0 0 0 0 0 0 0
0 0 0 0 0 0 0 0 0 0 0 0 0 0 0 0 0 0 0 0 0 0 0 0 0 0 0 0 0 0 0 0
0 0 0 0 0 0 0 0 0 0 0 0 0 0 0 0 0 0 0 0 0 0 0 0 0 0 0 0 0 0 0 0
0 0 0 0 0 0 0 0 0 0 0 0 0 0 0 0 0 0 0 0 0 0 0 0 0 0 0 0 0 0 0 0
0 0 0 0 0 0 0 0 0 0 0 0 0 0 0 0 0 0 0 0 0 0 0 0 0 0 0 0 0 0 0 0
0 0 0 0 0 0 0 0 0 0 0 0 0 0 0 0 0 0 0 0 0 0 0 0 0 0 0 0 0 0 0 0
0 0 0 0 0 0 0 0 0 0 0 0 0 0 0 0 0 0 0 0 0 0 0 0 0 0 0 0 0 0 0 0
0 0 0 0 0 0 0 0 0 0 0 0 0 0 0 0 0 0 0 0 0 0 11 4 3 0 0 0 0 0 0 0
0 0 0 0 0 0 0 0 0 0 0 0 0 0 0 0 0 0 0 0 0 7 15 15 8 8 1 0 0 0 0 0
0 0 0 0 1 4 8 0 0 0 0 0 0 0 0 0 0 0 0 0 0 0 16 13 12 1 0 2 0 0 0 0
4 2 6 3 7 18 15 0 0 0 0 0 0 0 0 0 0 0 0 0 0 0 0 6 15 8 0 2 2 0 0 0
0 1 1 0 0 0 0 0 0 0 0 0 0 0 0 0 0 0 0 0 0 2 5 39 11 11 13 0 0 0 0 0

GFSFLT2_con_mucape_021.txt.gz
CAPE
538 638 688 603 602 688 842 969 1118 1105 1092 940 909 978 1130 1096 1180 1028 1011 1033 1046 897 652 498 437 383 322 246 167 103 236 98
668 790 636 532 558 331 470 746 878 976 882 604 434 463 623 534 684 485 385 350 382 468 493 470 420 337 282 243 192 130 47 0
779 845 807 567 281 319 354 455 687 791 741 396 407 605 432 393 272 185 75 17 24 34 17 18 11 15 10 8 8 10 9 0
848 977 1053 758 474 251 481 555 739 870 963 772 615 454 262 95 45 34 1 0 0 0 0 0 0 0 0 0 0 0 0 2
1079 1007 1003 1009 929 442 286 423 626 661 628 793 659 423 330 208 93 80 64 0 0 0 0 0 0 0 0 0 0 0 0 0
1252 1033 824 613 594 706 358 409 533 664 641 513 590 639 613 365 137 88 49 0 0 0 0 0 0 0 0 0 0 0 0 0
1050 506 29 41 34 247 381 420 609 614 448 319 322 432 443 214 114 13 0 0 0 0 0 0 0 0 0 0 0 0 0 0
737 184 22 19 32 110 291 302 373 429 255 260 185 92 65 16 0 0 0 0 0 0 0 0 0 0 0 0 0 0 0 0
696 188 0 0 0 0 2 26 40 9 24 69 52 1 0 5 10 15 0 0 0 0 0 0 0 0 0 0 0 0 0 0
436 98 0 0 0 0 0 0 0 0 0 0 0 0 0 0 0 8 30 0 0 0 0 0 0 0 0 0 0 0 0 0
209 4 0 0 0 0 0 0 0 0 0 0 0 0 0 0 0 0 25 16 0 0 0 0 0 0 0 0 0 0 0 0
78 0 0 0 0 0 0 0 0 0 0 0 0 0 0 0 0 0 0 0 0 0 0 0 0 0 0 0 0 0 0 0
0 0 0 0 0 0 0 0 0 0 0 0 0 0 0 0 0 0 0 0 0 0 0 0 0 0 0 0 0 0 0 0
0 0 0 0 0 0 0 0 0 0 3 0 0 0 0 0 0 0 0 0 0 0 0 0 0 0 0 0 0 0 0 0
0 0 0 0 0 0 0 0 2 3 0 0 0 0 0 0 0 0 0 0 0 0 0 0 0 0 0 0 0 0 0 0
0 0 0 0 0 0 0 0 0 0 0 0 0 0 0 0 0 0 0 0 0 0 0 0 0 1 1 5 0 0 0 0
0 0 0 0 0 0 0 0 0 1 1 0 0 0 0 0 0 0 0 0 0 0 0 0 0 9 8 14 9 2 0 0
0 1 4 0 1 1 0 0 2 0 0 0 0 0 0 0 0 0 0 0 0 0 0 0 0 0 2 25 20 11 7 2
12 11 11 16 26 14 1 0 0 0 0 0 0 0 0 0 0 0 0 0 0 0 0 0 0 0 1 3 6 21 12 9
13 40 33 12 7 0 0 0 0 0 0 0 0 0 0 0 0 0 0 0 0 0 0 1 7 10 9 10 19 1 0 0

GFSFLT2_con_mucape_024.txt.gz
CAPE
537 632 537 537 579 690 776 959 1015 1042 957 936 934 1006 1074 1145 1062 1025 1017 990 893 720 449 351 325 290 251 217 166 118 879 740
897 951 897 882 731 282 586 709 811 848 661 544 452 633 580 673 600 448 372 337 269 238 235 225 186 139 105 91 83 102 702 534
1229 1134 1290 1093 665 607 230 510 674 695 662 332 474 868 757 653 151 96 18 0 0 0 0 0 0 0 0 0 0 26 152 210
1491 1673 1652 1451 553 805 951 852 891 1048 1078 1058 804 1051 840 326 133 12 2 0 0 0 0 0 0 0 0 0 0 0 0 7
1569 1882 1959 1631 712 620 463 626 799 1058 1306 1310 1143 1024 990 940 801 661 615 17 71 0 0 0 0 0 0 0 0 0 0 0
1827 1928 1782 1317 452 299 435 526 659 866 1011 1460 1308 983 838 905 702 528 427 119 118 1 0 0 0 0 0 0 0 0 0 0
1805 1973 1424 332 563 467 722 875 679 925 1078 991 1295 761 604 552 337 218 66 4 5 5 4 6 0 0 0 0 0 0 0 0
1837 1546 621 309 357 595 485 661 520 744 472 425 1080 994 461 184 8 0 0 0 0 0 0 0 0 0 0 0 0 0 0 0
1638 1228 464 364 321 252 191 90 289 72 16 189 344 462 100 76 8 0 0 0 25 65 6 0 0 0 0 0 0 0 0 0
1033 601 545 263 162 110 11 0 0 0 0 7 31 64 80 49 8 0 0 5 0 0 0 0 0 0 0 0 0 0 0 0
787 794 454 173 93 36 24 31 24 0 8 2 1 12 24 53 34 22 37 40 21 33 9 0 0 0 0 0 0 0 0 0
278 415 223 61 39 9 2 9 3 0 0 0 0 0 0 4 2 17 47 57 37 42 69 42 0 0 0 0 0 0 0 0
21 38 16 0 0 0 0 0 0 0 0 0 0 0 0 0 0 0 14 32 54 57 49 81 77 13 0 0 0 0 0 0
0 0 0 0 0 0 0 0 0 0 0 1 0 0 0 0 0 0 0 0 8 23 69 74 52 23 28 0 3 5 8 0
0 0 0 0 0 0 0 0 0 0 0 0 0 0 1 0 0 0 0 0 0 0 5 25 43 48 63 18 20 30 50 48
0 0 0 0 0 0 0 0 2 0 0 0 1 0 0 0 0 0 0 0 0 0 2 11 38 30 86 113 35 26 72 77
0 0 0 0 0 0 0 0 0 10 0 0 0 0 0 0 0 0 0 0 0 1 8 21 28 46 45 68 54 35 5 33
0 0 0 0 0 0 1 0 0 0 0 0 0 0 0 0 0 0 0 0 0 2 7 11 14 14 7 5 1 1 7 14
0 0 1 1 13 13 0 0 0 0 0 0 0 0 0 0 0 3 5 9 10 6 0 0 0 0 0 0 0 3 4 10
0 8 10 13 4 0 0 0 0 0 0 0 0 0 0 3 9 15 15 12 0 0 0 0 0 0 0 0 0 0 4 9

GFSFLT2_con_mucape_027.txt.gz
CAPE
242 381 350 646 613 679 808 884 893 812 691 719 783 909 990 991 925 911 846 652 608 430 283 211 201 200 194 169 148 209 481 608
411 484 649 811 714 400 595 720 740 663 475 389 503 605 633 628 615 454 405 362 233 105 94 91 60 26 1 0 0 60 496 178
622 584 743 551 366 387 293 569 721 613 540 308 636 986 765 687 156 108 25 0 0 0 0 0 0 0 0 0 0 0 0 3
783 947 1015 699 66 361 492 388 734 725 715 698 672 692 772 102 193 59 9 28 0 0 0 0 0 0 0 0 0 0 0 0
545 1290 1106 745 338 135 204 247 297 698 827 804 757 586 635 606 567 806 904 144 246 8 7 0 0 0 0 0 0 0 0 0
537 1069 1116 671 167 21 86 105 338 357 682 729 700 453 460 473 241 175 106 58 58 27 19 8 2 0 0 0 0 0 0 0
618 1332 1665 194 128 121 181 310 381 636 485 469 466 265 301 191 120 24 2 3 6 10 10 7 13 4 0 0 0 0 0 0
517 1385 1669 206 85 217 168 333 292 403 190 178 181 243 141 78 19 0 0 0 2 0 0 0 0 0 0 0 0 0 0 0
725 1473 1399 594 204 186 31 14 5 2 0 1 33 67 38 56 32 23 8 7 83 12 8 11 17 10 2 0 0 0 0 0
680 1004 1092 1015 161 85 10 2 8 0 0 0 4 28 51 67 53 54 43 99 41 40 38 40 41 28 18 2 0 0 0 0
666 969 1218 960 238 112 41 40 43 3 5 11 1 11 8 39 38 37 111 53 104 147 119 207 124 76 24 26 13 1 1 0
541 781 1025 699 281 100 31 24 20 2 2 0 0 0 0 0 7 51 81 60 157 219 346 201 231 240 52 25 82 16 11 12
281 491 338 149 104 44 11 3 0 0 0 0 0 0 0 1 1 1 42 38 139 260 277 287 294 354 261 274 188 115 62 9
0 0 3 0 0 0 0 0 0 0 3 0 0 0 0 0 0 0 0 0 20 88 206 212 274 358 244 246 154 154 196 92
0 0 0 0 0 0 0 0 0 2 0 2 0 0 3 0 0 0 0 0 0 55 87 135 148 155 390 314 212 166 244 282
0 0 0 0 0 0 0 3 5 8 5 2 0 0 0 0 0 0 0 0 5 12 21 137 175 111 165 159 211 217 194 277
0 0 0 0 0 0 0 0 0 0 1 0 0 0 0 0 0 0 0 0 8 12 22 29 26 50 66 35 0 3 47 42
0 0 0 0 0 0 0 0 0 6 3 0 0 0 0 0 0 0 1 4 22 29 31 14 8 10 16 2 12 10 6 10
0 0 0 0 0 0 0 0 0 0 0 0 0 0 0 0 0 4 15 27 27 16 24 8 0 0 0 0 0 0 1 6
1 0 0 0 0 0 0 2 3 4 8 0 0 0 1 2 13 22 33 5 8 6 7 9 0 0 0 0 0 0 0 0

GFSFLT2_con_mucape_030.txt.gz
CAPE
44 129 374 560 547 637 654 680 667 712 737 743 824 920 957 852 837 724 598 513 433 325 196 113 78 71 81 93 133 192 52 287
226 205 380 382 333 435 521 567 471 426 390 362 490 556 729 762 587 408 262 195 113 44 0 0 0 0 0 0 0 0 17 135
474 521 815 915 433 362 444 554 507 402 384 265 467 691 573 690 165 182 70 10 0 0 0 0 0 0 0 0 0 0 0 0
836 861 1020 614 46 266 652 627 619 654 708 640 823 591 548 120 237 125 115 100 29 10 0 0 0 0 0 0 0 0 0 0
576 1338 1160 844 597 343 581 641 850 1087 834 760 892 657 717 641 468 267 186 211 112 93 0 2 5 0 0 0 0 0 0 0
814 1101 1168 727 244 356 420 301 878 598 1097 870 961 673 685 339 308 99 131 115 159 41 15 38 12 10 1 0 0 0 0 0
769 1207 1349 843 205 635 678 549 902 718 624 819 611 353 564 336 148 63 9 0 0 1 0 0 0 6 8 0 0 0 0 0
1066 1490 1800 452 297 420 474 778 712 715 441 331 192 352 350 165 90 27 2 0 0 0 0 0 0 0 0 0 0 0 0 0
955 1537 1786 823 411 379 220 219 43 100 89 56 52 65 128 99 71 53 19 44 40 10 0 0 0 0 0 0 0 0 0 0
811 874 1649 1428 921 357 164 88 84 30 6 15 4 10 60 71 82 90 100 90 50 47 46 20 11 11 1 0 0 0 0 0
696 978 1310 1440 1025 311 225 78 48 66 54 33 46 6 59 32 30 50 95 55 50 60 36 52 47 43 20 5 0 7 1 0
582 778 1295 1153 595 231 97 60 56 71 31 2 0 0 8 9 0 13 73 31 25 41 75 95 100 99 62 46 21 22 17 13
255 469 425 369 198 76 36 7 3 0 0 5 3 16 0 0 0 0 0 0 0 0 0 0 0 73 111 35 0 0 45 43
0 53 72 14 0 0 0 0 0 4 16 0 7 5 0 0 0 0 0 0 0 0 0 0 0 7 71 63 9 0 0 11
0 0 0 0 0 0 0 0 5 2 5 3 0 0 0 0 0 0 0 0 0 0 0 0 1 0 9 84 44 14 14 0
0 0 0 0 0 0 0 0 0 0 0 0 0 0 0 0 0 0 0 0 0 0 0 3 7 0 0 5 7 19 15 2
0 0 0 0 0 0 0 0 0 0 0 0 0 0 0 0 0 0 0 0 0 8 1 0 3 16 15 4 2 0 18 39
0 0 0 1 0 0 0 0 0 0 0 0 0 0 0 0 0 0 0 0 0 0 4 3 5 1 8 1 0 0 0 0
0 0 0 0 0 0 0 0 0 0 0 0 0 0 0 0 0 0 0 1 3 9 8 9 9 6 0 0 0 0 0 0
0 0 0 0 0 0 2 0 0 0 6 2 1 0 0 0 0 1 1 9 18 21 1 1 0 0 0 0 0 0 0 0

GFSFLT2_con_mucape_033.txt.gz
CAPE
71 197 339 345 315 333 373 444 492 529 567 628 653 694 769 849 761 553 470 373 281 150 52 9 3 0 2 1 0 0 0 130
18 121 158 98 94 191 209 183 163 147 239 278 291 433 529 568 462 542 381 267 145 55 0 0 0 0 0 0 0 0 0 0
215 269 307 238 14 152 231 261 158 204 152 304 394 503 382 393 233 258 219 78 8 0 0 0 0 0 0 0 0 0 0 0
312 364 405 386 55 86 40 156 309 324 301 383 417 510 422 344 183 150 127 62 25 30 1 0 0 0 0 0 0 0 0 0
407 331 157 214 260 136 248 143 357 461 523 268 446 200 318 243 269 174 96 60 73 96 6 0 0 0 0 0 0 0 0 0
421 318 195 56 5 8 349 454 512 561 513 319 251 148 84 56 220 111 66 50 91 40 6 0 0 0 0 0 0 0 0 0
356 248 238 8 0 0 8 148 168 216 406 295 175 50 41 39 6 3 0 0 0 0 0 0 0 0 0 0 0 0 0 0
416 348 348 7 8 24 44 90 187 69 204 139 87 39 21 19 0 1 2 0 0 0 0 0 0 0 0 0 0 0 0 0
476 673 886 342 23 37 10 241 66 19 8 0 7 1 8 0 0 11 4 11 4 4 0 0 0 0 0 0 0 0 0 0
649 1128 699 437 201 171 11 8 0 0 0 0 0 0 0 0 3 0 0 0 0 0 0 0 0 0 0 0 0 0 1 0
700 1074 677 564 330 233 59 37 14 0 0 0 0 0 0 0 0 0 0 0 0 0 0 0 0 0 0 0 0 0 0 0
406 724 685 607 332 136 71 35 18 4 0 0 0 0 0 0 0 0 0 0 0 0 0 0 0 0 0 0 0 0 0 0
290 415 245 163 68 73 62 34 18 8 2 12 22 6 0 0 0 0 0 0 0 0 0 0 0 0 0 0 0 0 0 0
41 78 165 102 24 22 41 45 15 11 5 1 1 0 0 0 0 0 0 0 0 0 0 0 0 0 0 0 0 0 0 0
0 0 0 0 0 0 0 0 0 0 0 0 0 0 0 0 0 0 0 0 0 0 0 0 0 0 0 0 1 4 0 0
0 0 0 0 0 0 0 0 0 0 0 0 0 0 0 0 0 0 0 0 0 0 0 0 8 8 7 14 16 21 11 0
0 0 0 0 0 0 0 0 0 0 0 0 0 0 0 0 0 0 0 0 0 0 4 7 4 5 4 2 0 1 0 0
0 0 0 0 0 0 0 0 0 0 0 0 0 0 0 0 0 0 0 0 0 0 0 0 0 0 3 2 1 0 0 0
0 0 0 0 0 0 0 0 0 0 0 0 0 0 0 0 0 0 0 0 0 0 3 3 0 1 0 0 0 0 0 0
0 0 0 0 0 0 0 0 0 0 0 0 0 0 0 0 0 0 0 0 0 0 0 0 0 0 1 8 6 5 0 0

GFSFLT2_con_mucape_036.txt.gz
CAPE
65 136 234 260 245 282 296 416 490 584 639 682 656 609 641 730 613 467 385 287 200 80 17 1 0 0 0 0 0 0 0 7
0 6 6 6 32 103 101 117 177 230 300 269 293 313 390 454 420 508 372 240 125 44 1 0 0 0 0 0 0 0 0 0
83 51 45 0 0 48 141 150 109 96 236 195 189 137 207 274 128 247 319 170 61 2 0 0 0 0 0 0 0 0 0 0
172 147 106 21 21 69 54 54 144 91 231 328 316 306 230 253 171 167 143 31 0 0 0 0 0 0 0 0 0 0 0 0
266 244 233 193 54 78 98 242 321 304 273 327 337 416 477 370 187 107 13 5 0 0 0 0 0 0 0 0 0 0 0 0
315 337 415 231 315 89 299 203 326 421 501 326 327 247 271 221 146 32 23 0 1 7 0 4 0 0 0 0 0 0 0 0
319 113 166 0 6 99 287 442 423 556 542 352 310 117 25 36 5 0 0 0 0 0 0 0 0 0 0 0 0 0 0 0
363 57 5 2 0 1 16 134 397 418 476 359 186 73 15 0 0 0 0 0 0 0 0 0 0 0 0 0 0 0 0 0
451 146 234 81 19 29 34 102 87 129 248 169 66 31 15 0 0 0 0 0 0 0 0 0 0 0 0 0 0 0 0 0
427 421 479 369 39 85 64 176 81 3 58 7 30 7 1 0 0 0 0 0 0 0 0 0 0 0 0 0 0 0 0 0
686 541 478 510 307 96 117 37 17 43 9 4 0 0 0 0 0 0 0 0 0 0 0 0 0 0 0 0 0 0 0 0
822 527 531 521 228 131 124 122 60 39 24 3 5 11 11 3 0 8 1 0 0 0 0 0 0 0 0 0 0 0 0 0
249 266 217 215 106 126 90 74 42 46 38 27 8 13 16 30 45 1 0 0 0 0 0 0 0 0 0 0 0 0 0 0
48 22 16 0 0 0 15 16 25 56 39 29 41 27 13 10 5 1 5 9 0 0 0 0 0 0 0 0 0 0 0 0
7 0 0 0 0 0 0 0 0 0 0 0 0 0 0 0 2 0 0 0 0 0 0 0 0 0 1 0 0 0 0 0
0 0 0 0 0 0 0 0 0 0 0 0 0 0 0 0 0 0 0 0 0 0 0 0 0 0 0 0 0 0 0 0
0 0 0 0 0 0 0 0 0 0 0 0 0 0 0 0 0 0 0 0 0 0 0 0 0 0 0 0 0 0 0 0
0 0 0 0 0 0 0 0 0 0 0 0 0 0 0 0 0 0 0 0 0 0 0 0 0 0 0 0 0 0 0 0
0 0 0 0 0 0 0 0 0 0 0 0 0 0 0 0 0 0 0 0 0 0 0 0 0 0 0 0 0 0 0 0
0 0 0 0 0 0 0 0 0 0 0 0 0 0 0 0 0 0 0 0 0 0 0 0 0 0 0 0 2 0 2 9

GFSFLT2_con_mucape_042.txt.gz
CAPE
329 429 545 608 624 633 682 692 641 667 699 685 624 496 506 551 497 355 218 141 72 44 30 1 0 0 0 0 0 0 0 0
0 3 29 50 145 245 301 307 305 370 395 328 262 266 327 235 190 239 167 125 111 109 20 0 0 0 0 0 0 0 0 0
0 0 0 0 0 22 137 192 160 152 168 188 106 31 92 129 56 84 142 83 105 163 134 30 4 0 0 0 0 0 0 0
0 0 0 0 0 0 0 0 0 0 12 54 55 57 91 101 127 109 143 122 104 75 63 26 5 0 0 0 0 0 0 0
0 0 0 0 0 0 0 0 11 150 194 178 173 169 183 201 182 127 15 0 0 0 0 0 0 0 0 0 0 0 0 0
62 0 0 0 0 0 23 59 71 100 165 252 270 264 257 241 255 177 2 0 0 0 0 0 0 0 0 0 0 0 0 0
158 2 0 1 0 1 92 118 205 247 320 354 398 342 196 99 80 14 0 0 0 0 0 0 0 0 0 0 0 0 0 0
240 126 41 177 65 100 74 186 216 324 434 524 574 338 243 60 12 0 0 0 0 0 0 0 0 0 0 0 0 0 0 0
327 326 189 270 84 55 32 133 253 518 558 591 662 438 222 4 0 0 0 0 1 2 2 0 0 0 0 0 0 0 0 0
362 424 352 40 25 4 6 5 205 135 145 272 490 337 115 0 4 10 14 2 10 12 16 19 14 5 0 0 0 0 0 0
266 346 243 150 21 5 13 75 46 72 74 51 134 86 41 34 41 30 30 22 7 50 32 2 1 1 0 0 0 0 0 0
320 258 133 28 93 65 63 69 46 45 50 51 30 36 42 49 55 42 15 7 7 6 4 7 1 0 0 0 0 0 0 0
308 285 203 160 91 35 23 51 38 3 0 0 0 0 0 0 0 0 0 0 0 0 0 0 0 0 0 0 0 0 0 0
68 26 22 0 0 0 0 0 0 0 0 0 0 0 0 0 0 0 0 0 0 0 0 0 0 0 0 0 0 0 0 0
2 0 0 0 0 0 0 0 0 0 0 0 0 0 0 0 0 0 0 0 0 0 0 0 0 0 0 0 0 0 0 0
0 0 0 0 0 0 0 0 0 0 0 0 0 0 0 0 0 0 0 0 0 0 0 0 0 0 0 0 0 0 0 0
0 0 0 0 0 0 0 0 0 0 0 0 0 0 0 0 0 0 0 0 0 0 0 0 0 0 0 0 0 0 0 0
0 0 0 0 0 0 0 0 0 0 0 0 0 0 0 0 0 0 0 0 0 0 0 0 0 0 0 0 0 0 0 0
0 0 0 0 0 0 0 0 0 0 0 0 0 0 0 0 0 0 0 0 0 0 0 0 0 0 0 0 0 1 13 9
0 0 0 0 0 0 0 0 0 0 0 0 0 0 0 0 0 0 0 0 0 0 0 0 0 0 1 1 0 15 21 21

GFSFLT2_con_mucape_045.txt.gz
CAPE
704 803 849 813 756 752 751 794 763 731 731 684 534 449 482 513 445 273 129 52 34 0 0 0 0 0 0 0 0 0 0 0
469 551 666 764 771 584 587 503 425 455 432 324 205 245 259 234 132 208 125 128 148 72 70 2 0 0 0 0 0 0 0 0
72 136 187 224 280 342 264 273 262 239 227 157 87 304 351 223 47 65 150 165 143 148 143 62 6 0 0 0 0 0 0 0
0 0 0 6 0 167 168 148 133 160 253 324 294 394 439 320 194 63 99 49 19 5 0 0 18 6 0 0 0 0 0 0
0 0 0 0 0 6 0 28 30 65 200 228 315 344 437 571 584 337 254 0 46 0 0 0 0 0 0 0 0 0 0 0
0 0 0 0 0 0 0 0 15 101 140 211 402 586 617 574 536 402 115 0 0 0 0 0 0 0 0 0 0 0 0 0
21 0 0 0 0 4 18 46 139 238 311 439 510 661 541 198 187 32 0 0 0 0 0 0 0 0 0 0 0 0 0 0
98 44 8 1 0 18 91 131 161 256 402 470 422 553 348 192 9 0 0 0 0 0 3 0 0 0 0 0 0 0 0 0
163 270 34 132 196 105 17 33 42 125 290 360 395 459 397 236 40 0 0 6 6 7 2 5 0 0 10 0 0 0 0 0
194 258 298 247 17 0 0 8 0 15 124 95 87 171 205 114 41 10 13 10 30 29 7 0 0 0 0 0 0 0 0 0
86 184 264 192 9 4 0 1 16 40 34 29 17 58 8 13 29 27 10 19 17 1 0 0 0 0 0 0 0 0 0 0
119 134 196 134 73 19 1 88 20 7 29 27 9 0 0 0 0 0 0 0 0 0 0 2 1 0 0 0 0 0 0 0
181 190 42 127 130 59 13 10 0 0 0 0 0 0 0 0 0 0 0 0 0 0 0 0 0 0 0 0 0 0 0 0
183 91 51 35 0 0 0 0 0 0 0 0 0 0 0 0 0 0 0 0 0 0 0 0 0 0 0 0 0 0 0 0
4 0 0 0 0 0 0 0 0 0 0 0 0 0 0 0 0 0 0 0 0 0 0 0 0 0 0 0 0 0 0 0
0 0 0 0 0 0 0 0 0 0 0 0 0 0 0 0 0 0 0 0 0 0 0 0 0 0 0 0 0 0 0 0
0 0 0 0 0 0 0 0 0 0 0 0 0 0 0 0 0 0 0 0 0 0 0 0 0 1 10 8 0 10 17 3
3 0 0 0 0 0 0 0 0 0 0 0 0 0 0 0 0 0 0 0 0 0 0 0 0 2 16 27 32 32 35 31
0 0 1 0 0 0 0 0 0 0 0 0 0 0 0 0 0 0 0 0 0 0 0 0 12 24 48 52 56 61 65 61
0 0 0 0 0 0 0 0 0 0 0 0 0 0 0 0 0 0 0 0 6 3 6 25 45 89 94 87 87 92 82 47

GFSFLT2_con_mucape_048.txt.gz
CAPE
1100 1197 1042 887 779 712 736 817 840 804 730 685 564 522 552 435 338 122 39 25 9 0 0 0 0 0 0 0 0 0 0 0
785 737 703 727 798 627 649 613 504 484 487 337 304 283 254 256 223 169 66 65 33 22 23 0 0 0 0 0 0 0 0 0
547 432 483 445 334 476 362 304 302 266 267 175 118 373 441 306 28 102 111 93 59 28 1 0 0 0 0 0 0 0 0 0
224 225 193 115 5 154 188 74 39 340 421 499 505 718 795 583 321 75 82 8 0 0 0 0 9 0 0 0 0 0 0 0
45 128 122 35 20 31 5 16 184 582 775 785 865 804 945 965 1025 842 789 35 124 0 8 0 24 23 1 8 0 0 0 0
38 73 128 105 20 16 105 223 516 617 784 929 1073 1300 1129 1060 974 1005 833 210 101 39 28 52 9 0 0 0 0 0 0 0
127 159 103 146 265 357 429 578 673 888 902 1067 1237 1326 1292 1028 967 674 328 167 101 83 28 0 0 0 0 0 0 0 0 0
308 342 367 371 488 590 661 701 727 956 1047 1251 1134 951 551 356 241 202 128 18 0 0 0 0 0 0 0 0 0 0 0 0
381 501 586 587 375 131 90 82 65 136 260 287 470 499 339 212 161 93 49 8 3 3 0 0 2 0 0 0 0 0 0 0
408 419 434 193 146 80 10 20 5 10 57 75 56 45 41 69 37 46 49 36 0 0 0 0 0 0 0 0 0 0 0 0
514 501 238 111 80 54 19 4 16 11 22 30 64 45 25 0 0 0 0 0 0 0 0 0 0 0 0 0 0 0 0 0
619 477 96 172 77 11 0 3 37 23 16 0 0 0 0 0 0 0 0 0 0 0 0 0 0 0 0 0 0 0 0 0
665 306 174 53 0 0 7 0 0 0 0 0 0 0 0 0 0 0 0 0 0 0 0 0 0 0 0 0 0 0 28 15
654 499 285 440 190 22 0 0 0 0 0 0 0 0 0 0 0 0 0 0 0 0 0 0 0 0 1 0 0 0 0 26
601 597 545 135 0 0 0 0 0 0 0 0 0 0 0 0 0 0 0 0 0 0 0 0 0 0 4 6 0 0 3 0
29 67 29 1 0 0 0 0 11 0 0 0 0 0 0 0 0 0 0 0 0 0 0 0 1 0 0 7 35 40 0 0
0 0 0 0 0 0 0 0 0 0 0 0 0 0 0 0 0 0 0 0 0 2 3 12 11 23 31 41 59 50 60 41
0 0 0 0 0 0 0 0 0 0 0 0 0 0 0 0 0 0 5 24 32 41 45 46 62 69 76 68 46 35 37 38
0 0 0 0 0 0 0 0 0 0 0 0 0 0 0 4 18 41 53 69 81 67 82 66 65 73 74 68 75 70 51 48
0 0 0 0 0 5 0 0 0 0 0 0 0 0 7 9 28 58 78 75 68 65 78 78 81 97 90 85 75 70 50 56

GFSFLT2_con_mucape_051.txt.gz
CAPE
980 909 886 886 698 634 652 750 773 693 662 570 461 489 475 358 278 42 21 16 0 0 0 0 0 0 0 0 0 0 0 0
944 942 839 853 733 540 572 565 486 432 361 251 225 209 227 254 310 156 47 29 41 43 42 0 0 0 0 0 0 0 0 0
506 445 470 511 540 573 394 402 342 233 114 136 51 219 317 267 61 120 63 31 31 23 2 0 2 5 0 0 16 6 0 15
358 374 333 184 32 201 139 45 2 136 186 278 636 574 748 552 306 144 135 37 69 9 4 47 69 74 48 44 19 0 14 6
174 212 159 67 151 85 47 12 310 589 787 820 888 637 870 862 763 1021 970 224 285 56 92 88 98 78 39 27 0 0 0 3
57 131 150 93 14 3 9 86 411 644 853 1054 1148 1069 1117 1087 914 799 1119 445 229 168 134 209 90 52 0 0 0 0 0 0
164 111 201 346 279 511 650 676 949 1144 1083 1102 1571 1671 1122 1029 1171 758 439 350 235 201 152 103 49 27 6 0 1 0 1 0
321 297 333 522 777 781 864 646 708 653 863 1065 1181 1173 1090 811 546 448 344 109 56 13 6 1 1 18 0 0 0 1 3 1
585 541 629 697 523 294 169 97 92 52 103 328 621 787 636 493 330 91 24 10 1 0 0 0 0 2 2 1 1 1 0 0
738 623 758 422 192 34 52 59 42 44 17 36 67 93 61 41 9 2 0 0 0 0 0 0 0 0 0 0 0 0 0 0
790 857 390 147 77 31 17 2 10 14 0 0 6 26 9 0 0 0 0 0 0 0 0 0 0 0 0 0 0 0 0 0
929 665 203 176 123 42 40 0 6 5 11 21 4 0 0 0 0 0 0 0 1 0 0 0 0 0 0 0 0 0 0 0
873 445 393 434 386 153 17 0 0 0 0 0 0 0 0 0 0 0 0 0 0 0 0 0 0 0 0 0 0 0 4 8
756 580 534 602 281 255 99 25 0 0 0 0 0 0 0 0 0 0 0 0 0 0 0 0 0 0 0 0 0 0 0 0
872 694 599 326 45 11 22 2 0 0 1 0 0 0 0 0 0 0 0 0 0 0 0 0 0 0 1 1 0 0 0 2
199 153 117 7 0 0 0 2 21 53 24 7 1 0 0 0 0 0 1 3 6 12 9 20 22 10 15 14 29 32 0 0
36 13 0 0 0 1 2 14 15 15 5 0 0 0 8 5 1 3 11 14 22 32 47 50 42 42 40 35 34 55 49 80
0 0 0 0 0 0 0 3 3 0 0 0 0 0 0 1 3 12 23 39 50 52 86 73 79 77 75 74 61 60 47 76
0 0 0 0 0 0 0 0 13 13 0 0 0 0 0 0 0 5 9 24 43 72 98 83 75 79 73 74 60 56 67 40
0 5 4 0 0 0 0 1 5 0 0 0 0 0 0 2 6 10 18 34 101 70 94 98 70 111 85 82 68 55 37 44

GFSFLT2_con_mucape_054.txt.gz
CAPE
670 674 723 568 501 493 542 612 552 546 488 448 429 388 350 293 231 165 109 73 25 7 0 0 0 0 0 0 0 26 0 4
684 663 707 574 459 413 434 370 328 271 209 201 166 151 227 281 200 172 136 81 75 54 0 0 1 1 0 0 0 0 0 12
692 670 706 534 471 444 324 308 215 122 86 92 37 142 150 175 66 161 171 94 77 59 30 29 41 59 59 51 64 0 0 9
454 454 508 521 209 345 202 71 29 35 27 162 446 649 303 386 84 155 229 218 211 182 140 64 55 21 51 44 19 9 0 1
256 389 310 184 65 197 46 5 238 433 689 771 907 806 803 372 548 341 403 249 326 122 43 49 138 95 18 4 0 0 0 0
126 189 270 147 54 90 42 141 624 708 864 804 811 715 838 538 513 626 543 404 338 255 145 146 107 42 20 7 0 0 0 0
113 141 293 221 377 618 483 799 722 698 880 1021 988 848 504 475 605 543 437 211 51 36 16 18 6 0 0 0 0 0 0 0
92 205 472 688 711 735 436 278 173 167 291 419 759 754 793 600 499 303 193 84 22 1 0 0 0 0 0 1 3 5 4 0
244 357 664 549 341 261 204 199 59 23 48 92 113 203 249 130 194 57 2 0 0 0 0 0 0 0 0 0 0 0 0 0
373 450 559 340 214 167 103 53 5 0 0 4 10 0 0 0 0 0 0 0 0 0 0 0 0 0 0 0 0 0 0 0
640 502 437 273 92 44 7 18 0 0 0 0 0 0 0 0 0 0 0 0 0 0 0 0 0 0 0 0 0 0 0 0
674 599 295 238 77 49 41 14 15 8 0 0 0 6 1 0 0 0 0 0 0 0 0 0 0 0 0 0 0 0 0 0
665 563 335 121 94 95 4 0 0 0 0 0 0 0 0 0 0 0 0 0 0 0 0 0 0 0 0 0 0 0 0 0
563 455 233 221 325 303 52 0 0 0 0 0 0 0 0 0 0 0 0 0 0 0 0 0 0 0 0 0 0 0 0 0
665 543 399 497 307 25 4 0 0 0 0 0 0 0 0 0 0 0 0 0 0 0 0 0 0 0 0 0 0 0 0 0
690 738 613 345 6 0 0 0 0 3 7 7 0 0 0 0 0 0 0 0 0 0 0 0 0 0 0 0 0 0 0 0
520 172 44 0 1 5 0 47 33 23 14 32 3 0 0 0 0 0 0 0 5 17 30 17 3 7 7 1 0 0 0 7
261 4 0 0 0 0 7 10 0 0 1 1 1 4 0 0 0 3 1 0 0 10 13 9 4 4 9 6 5 2 0 6
0 0 0 0 0 0 0 0 0 0 4 7 1 0 0 0 0 0 0 0 0 8 32 51 24 14 9 14 16 10 0 0
0 0 0 0 0 0 0 0 0 6 12 7 0 0 0 0 0 0 0 0 0 1 20 41 57 28 20 12 17 14 17 7

GFSFLT2_con_mucape_060.txt.gz
CAPE
101 123 207 370 477 421 326 325 328 329 302 268 216 194 214 220 191 195 156 82 10 0 0 0 3 1 15 0 0 0 0 0
55 185 363 373 360 288 224 214 201 209 182 144 98 106 110 114 95 127 98 22 0 0 1 0 0 0 15 23 0 0 0 0
121 226 307 323 290 239 183 165 129 125 125 93 19 3 0 12 4 42 48 0 0 0 6 1 0 0 36 8 0 0 0 0
220 260 290 288 254 137 85 59 27 14 77 101 143 73 24 17 29 42 24 9 44 41 41 0 3 6 0 0 0 0 0 0
295 273 308 253 162 65 24 5 82 186 228 216 186 83 85 176 184 155 111 108 32 8 17 4 1 0 0 0 0 0 0 0
278 308 271 78 30 0 0 0 2 244 321 299 257 247 253 215 99 59 29 13 12 15 1 1 11 6 0 0 0 0 0 0
331 334 85 18 3 61 72 169 266 330 323 327 374 237 181 31 2 24 15 24 14 9 21 15 27 0 0 0 0 0 0 0
380 252 13 71 100 64 154 221 356 413 232 170 144 85 37 38 31 20 13 15 12 1 0 0 0 0 0 0 0 0 0 0
209 18 134 109 125 236 316 334 378 321 173 56 62 67 52 46 42 15 3 1 0 0 0 0 0 0 0 0 0 0 0 0
32 255 169 193 200 197 223 257 222 109 32 0 0 0 4 2 0 0 0 0 0 0 0 0 0 0 0 0 0 0 0 0
169 329 247 245 251 224 174 109 16 0 0 0 0 0 0 0 0 0 0 0 0 0 0 0 0 0 0 0 0 0 0 0
281 411 413 294 243 226 155 79 32 15 0 4 0 0 0 0 0 1 0 0 0 0 0 0 0 0 0 0 0 0 0 0
331 430 504 294 236 158 79 35 44 12 1 0 0 0 0 0 0 0 0 0 0 0 0 0 0 0 0 0 0 0 0 0
394 509 538 386 318 150 73 79 18 0 0 0 0 0 0 0 0 0 0 0 0 0 0 0 0 0 0 0 0 0 0 0
389 465 428 407 334 152 72 2 0 0 0 0 0 0 0 0 0 0 0 0 0 0 0 0 0 0 0 0 0 0 0 0
471 489 468 374 241 92 0 0 0 0 0 0 0 0 0 0 0 0 0 0 0 0 0 0 0 0 0 0 0 0 0 0
638 526 391 270 74 143 28 0 0 0 0 0 0 0 0 4 0 0 0 0 0 0 0 0 0 0 0 0 0 0 0 0
587 457 215 81 273 213 4 0 0 0 0 0 10 22 33 19 1 0 0 0 0 0 0 0 0 0 0 0 0 0 0 0
386 219 178 252 255 21 0 0 0 0 1 17 32 20 12 31 1 0 0 0 0 0 0 0 0 0 0 0 6 6 9 9
311 380 214 0 0 6 5 0 4 8 14 21 33 30 7 3 9 0 0 0 0 0 0 0 0 0 0 0 0 2 11 15

GFSFLT2_con_mucape_063.txt.gz
CAPE
25 64 172 275 458 346 363 402 410 433 402 305 253 230 191 209 226 223 145 96 73 47 11 19 87 58 0 0 0 0 0 0
50 81 105 245 274 271 277 273 292 290 234 172 138 124 133 166 147 155 148 130 120 72 57 48 28 58 0 0 0 0 0 0
50 116 197 271 303 269 221 229 189 140 121 85 26 21 16 0 40 94 106 111 121 146 60 10 0 0 0 0 0 0 0 0
11 94 276 306 268 182 127 113 46 39 36 5 3 0 10 14 15 61 98 92 106 11 0 3 2 0 0 1 0 0 0 0
96 156 280 254 192 89 46 21 15 27 71 108 72 78 63 153 119 106 63 41 22 13 10 9 0 0 0 0 0 0 0 0
126 166 274 225 101 19 0 0 8 165 189 185 180 77 184 134 94 115 54 25 11 5 6 13 2 0 0 0 0 0 0 0
157 224 302 138 11 0 0 104 196 285 316 290 268 258 244 105 81 47 19 30 27 13 7 13 12 2 0 0 0 0 0 0
165 294 206 0 0 0 13 131 239 356 310 359 365 252 87 19 17 25 23 25 26 8 0 0 0 0 0 0 0 0 0 0
263 301 34 25 9 65 131 278 353 366 282 152 131 85 35 38 35 41 27 19 0 0 0 0 0 0 0 0 0 0 0 0
294 328 26 74 15 62 194 314 393 369 297 156 55 38 28 22 12 8 0 0 0 0 0 0 0 0 0 0 0 0 0 0
286 287 62 87 115 240 352 391 389 325 142 50 3 0 0 2 0 2 1 0 0 0 0 0 0 0 0 0 0 0 0 0
210 100 82 149 202 258 264 247 189 67 19 8 0 0 0 0 0 0 0 0 0 0 0 0 0 0 0 0 0 0 0 0
180 156 172 236 243 216 196 184 104 41 18 14 14 0 0 0 0 0 0 0 0 0 0 0 0 0 0 0 0 0 0 0
107 251 230 271 263 212 176 156 38 45 24 25 0 0 0 0 0 0 0 0 0 0 0 0 0 0 0 0 0 0 0 0
87 238 388 402 353 240 162 81 80 44 36 0 0 0 0 0 0 0 0 0 0 0 0 0 0 0 0 0 0 0 0 0
250 264 392 477 373 298 205 161 83 35 1 0 0 0 0 0 0 0 0 0 0 0 0 0 0 0 0 0 0 0 0 0
316 361 403 508 380 249 210 41 0 0 0 0 0 0 0 0 0 4 0 2 2 0 0 0 0 0 0 0 0 0 0 0
321 421 444 457 404 221 48 10 0 0 0 0 0 0 3 12 4 10 4 5 1 0 0 0 0 0 0 0 0 0 0 0
365 430 480 464 266 27 96 208 0 0 0 1 0 1 2 0 10 3 0 5 0 0 0 0 0 0 0 0 0 3 9 13
482 502 414 198 43 146 249 223 5 4 3 0 22 29 17 15 18 6 1 0 0 0 0 0 0 0 0 0 0 0 6 17

GFSFLT2_con_mucape_066.txt.gz
CAPE
275 207 211 173 325 652 639 503 467 437 377 304 276 258 251 225 212 210 182 143 123 98 93 86 7 0 0 0 0 0 0 0
134 69 69 138 263 389 389 344 350 291 231 169 134 148 159 172 124 231 217 226 218 157 16 47 0 0 0 0 0 0 0 0
133 82 72 187 275 239 268 311 260 184 143 103 45 39 16 19 95 150 244 244 129 3 0 0 0 0 0 0 0 0 0 0
16 83 90 257 205 168 176 170 87 60 42 28 18 15 1 0 25 156 179 21 0 0 0 0 0 0 0 0 0 0 0 0
3 58 92 193 226 150 101 51 42 25 5 1 13 26 33 45 18 22 9 0 0 0 0 7 4 0 0 0 0 0 0 0
4 22 70 255 140 53 26 7 0 54 22 58 129 117 174 150 125 54 25 19 20 12 19 0 2 5 0 0 0 0 0 0
0 0 118 208 63 4 0 0 31 94 228 209 125 181 161 73 74 60 40 30 26 20 21 20 6 0 0 0 0 0 0 0
7 97 160 159 33 0 0 0 139 251 282 294 277 273 169 48 35 31 26 39 41 39 30 0 0 0 0 0 0 0 0 0
66 67 170 77 0 0 3 94 289 398 389 364 283 168 91 53 33 25 34 40 52 10 0 0 0 0 0 0 0 0 0 0
125 180 230 10 0 0 72 233 344 406 295 204 158 109 52 42 40 37 37 24 1 0 0 0 0 0 0 0 0 0 0 0
176 256 126 6 0 19 170 342 355 280 288 239 70 22 40 31 19 2 0 1 0 0 0 0 0 0 0 0 0 0 0 0
129 252 249 22 9 50 189 293 297 283 238 50 16 12 12 0 0 0 0 0 0 0 0 0 0 0 0 0 0 0 0 0
253 357 370 44 54 139 238 242 281 199 110 51 51 47 2 0 0 0 0 0 0 0 0 0 0 0 0 0 0 0 0 0
245 179 147 51 81 158 207 214 190 135 67 50 62 38 0 0 0 0 0 0 0 0 0 0 0 0 0 0 0 0 0 0
287 175 43 64 119 179 188 167 130 85 64 82 78 3 0 0 0 0 0 0 0 0 0 0 0 0 0 0 0 0 0 0
243 180 69 83 167 233 276 144 67 58 94 72 3 0 0 0 0 0 0 0 0 0 0 0 0 0 0 0 0 0 0 0
215 126 67 119 176 259 177 121 98 107 34 4 0 0 0 0 2 0 4 3 6 1 0 0 0 0 0 0 0 0 0 0
190 106 140 147 227 236 177 166 84 4 0 0 0 0 2 12 12 3 11 12 12 8 0 0 0 0 0 0 0 0 0 0
57 143 163 202 211 321 198 120 17 0 0 0 0 1 11 21 2 5 8 1 15 4 0 0 0 0 0 0 0 0 0 0
144 233 248 263 249 317 220 127 47 30 0 0 1 1 14 13 8 1 0 9 14 10 1 0 0 0 0 0 0 0 0 0

GFSFLT2_con_mucape_069.txt.gz
CAPE
375 534 441 294 624 545 370 358 335 323 318 281 253 255 217 195 177 166 177 173 150 141 54 33 35 7 0 0 0 0 0 0
285 278 142 81 153 339 302 250 239 241 227 179 141 153 166 166 168 202 194 154 118 31 0 0 0 0 0 0 0 0 0 0
147 33 8 42 105 179 246 261 166 157 161 120 60 72 59 57 149 232 166 31 1 0 0 0 0 0 0 0 0 0 0 0
45 33 20 18 191 161 230 200 94 133 103 83 65 97 109 83 143 170 1 0 0 0 0 0 0 0 0 0 0 0 0 0
138 5 58 99 149 113 95 82 92 100 79 84 129 99 157 212 215 0 0 0 0 0 0 0 0 0 0 0 0 0 0 0
4 51 124 160 111 99 47 56 46 59 60 170 246 228 220 54 48 14 25 5 1 8 11 2 8 9 0 0 0 0 0 0
0 39 60 96 64 20 16 43 39 73 133 306 320 176 226 181 145 61 55 14 25 27 22 22 4 0 0 0 0 0 0 0
4 0 45 120 30 0 6 41 53 69 170 266 170 188 162 115 71 55 41 30 33 29 32 3 0 0 0 0 0 0 0 0
0 1 106 185 49 7 18 63 189 223 284 276 150 168 78 50 49 60 35 24 34 25 0 0 0 0 0 0 0 0 0 0
0 57 180 203 11 0 41 188 200 253 282 249 223 115 60 42 42 41 33 21 5 0 0 0 0 0 0 0 0 0 0 0
103 171 141 226 0 15 116 191 269 272 230 199 188 106 47 47 37 18 6 0 0 0 0 0 0 0 0 0 0 0 0 0
88 217 306 89 0 3 92 250 279 261 171 166 116 42 38 18 1 0 0 0 0 0 0 0 0 0 0 0 0 0 0 0
81 236 264 68 15 17 69 227 249 188 48 77 30 17 20 7 0 0 0 0 0 0 0 0 0 0 0 0 0 0 0 0
140 183 212 289 14 14 25 152 178 89 69 50 43 21 4 0 0 0 0 0 0 0 0 0 0 0 0 0 0 0 0 0
152 276 339 427 145 42 75 144 107 86 91 59 19 11 11 0 0 0 0 0 0 0 0 0 0 0 0 0 0 0 0 0
219 304 300 186 189 95 121 161 91 54 61 49 14 19 0 0 0 0 0 0 0 0 0 0 0 0 0 0 0 0 0 0
85 216 295 190 71 87 131 173 80 99 63 21 4 4 0 0 0 1 7 3 12 5 2 0 1 0 0 0 0 0 0 0
169 143 226 254 125 65 102 175 75 79 58 13 3 0 0 0 0 2 11 4 5 0 0 1 0 0 0 0 0 0 0 0
224 219 216 214 131 85 171 112 150 77 58 4 0 0 0 0 1 15 20 30 0 1 0 7 0 0 0 0 0 0 0 0
72 219 266 127 153 105 205 232 226 69 0 0 0 0 0 0 2 21 7 11 0 0 0 0 0 0 0 0 0 0 0 0

GFSFLT2_con_mucape_072.txt.gz
CAPE
1139 869 798 556 609 497 382 283 210 202 244 276 227 173 173 212 211 244 253 217 199 148 144 88 16 0 0 0 0 0 6 7
356 279 63 51 206 295 263 202 170 180 184 138 96 112 163 203 204 279 308 258 34 3 27 0 0 0 0 0 0 0 0 0
227 206 10 16 112 203 202 204 164 149 90 64 17 13 12 22 174 238 194 58 0 0 0 0 0 0 0 0 0 0 0 0
194 79 11 3 71 130 262 186 68 61 40 24 10 37 38 46 92 31 0 0 0 0 0 0 0 0 0 0 0 0 0 0
186 97 41 1 3 0 203 131 184 119 80 42 96 140 122 182 10 0 0 0 0 0 0 0 6 8 0 0 0 0 0 0
123 52 31 0 1 11 134 135 158 143 189 176 237 245 320 399 198 7 0 0 0 3 18 25 15 8 0 0 0 0 0 0
44 20 1 73 144 140 142 166 164 191 290 319 389 481 526 348 85 7 15 20 14 20 19 14 1 0 0 0 0 0 0 0
4 1 6 7 21 171 158 146 169 253 392 589 682 591 383 139 124 68 42 43 22 17 12 0 0 0 0 0 0 0 0 0
40 80 125 233 177 148 118 157 199 312 511 620 305 218 199 86 45 40 34 15 10 12 0 0 0 0 0 0 0 0 0 0
182 65 273 370 196 93 68 193 378 529 630 697 352 197 75 30 38 19 10 9 3 0 0 0 0 0 0 0 0 0 0 0
29 111 390 440 346 96 156 356 593 645 604 681 490 170 38 21 3 3 5 0 0 0 0 0 0 0 0 0 0 0 0 0
23 267 437 515 393 286 382 516 572 508 580 548 219 102 32 22 2 0 0 0 0 0 0 0 0 0 0 0 0 0 0 0
284 485 677 636 353 137 230 422 389 446 403 261 65 67 19 3 1 0 0 0 0 0 0 0 0 0 0 0 0 0 0 0
348 469 621 592 200 142 378 564 307 421 362 55 57 19 9 2 0 0 0 0 0 0 0 0 0 0 0 0 0 0 0 0
293 456 541 592 452 214 398 468 248 266 161 48 66 45 5 0 0 0 0 0 0 0 0 0 0 0 0 0 0 0 0 0
290 375 548 668 618 378 264 284 350 234 55 55 56 24 3 1 0 0 0 0 0 0 0 0 9 0 0 0 0 0 0 0
676 632 742 756 697 546 479 456 386 49 39 37 58 25 1 10 0 0 0 0 0 5 1 1 0 0 0 0 0 0 0 0
689 613 595 563 499 553 541 509 107 93 74 47 49 1 0 10 0 0 0 0 10 7 9 0 3 0 0 0 0 0 0 0
702 689 619 635 536 497 379 325 114 91 83 104 45 23 17 3 0 0 2 7 13 5 0 0 0 0 0 0 0 0 0 0
710 752 719 647 590 458 352 327 280 146 107 85 43 30 3 0 0 0 0 5 4 3 0 0 0 0 0 0 0 0 0 0

GFSFLT2_con_mucape_075.txt.gz
CAPE
746 994 929 818 536 396 277 204 249 324 330 277 240 236 259 289 258 293 324 373 403 279 162 109 27 0 0 0 0 16 9 6
509 287 508 362 184 171 179 155 196 211 195 165 172 184 224 255 282 328 292 266 242 89 34 0 0 0 0 0 0 0 0 4
193 286 109 63 49 219 215 238 220 144 128 97 34 55 34 123 283 276 141 88 87 3 0 0 0 0 0 0 0 0 0 0
186 178 69 25 3 143 213 161 135 66 56 88 16 67 139 110 148 98 17 0 0 0 0 0 0 0 0 0 0 0 0 0
206 183 137 1 87 93 145 138 114 107 162 126 163 195 225 211 73 18 0 0 0 0 0 0 0 0 0 0 0 0 0 0
176 141 4 4 5 0 17 118 125 129 171 374 482 293 403 306 122 57 7 0 2 0 3 4 2 0 0 0 0 0 0 0
176 128 31 8 3 1 2 52 131 224 306 401 407 411 617 537 483 88 29 3 7 5 9 0 0 0 0 0 0 0 0 0
83 19 8 4 80 81 113 190 227 291 335 506 728 826 625 614 229 57 28 20 9 0 2 0 0 0 0 0 0 0 0 0
34 4 3 0 2 3 1 146 233 267 549 885 599 613 492 412 194 165 38 2 0 4 1 0 0 0 0 0 0 0 0 0
7 1 1 3 28 58 57 160 301 484 511 749 640 549 457 452 273 106 0 3 0 0 0 0 0 0 0 0 0 0 0 0
3 25 13 99 188 200 190 348 633 591 669 618 565 490 430 328 197 5 0 0 0 0 0 0 0 0 0 0 0 0 0 0
75 137 194 270 408 356 319 364 576 677 788 711 597 512 361 268 98 0 0 0 0 0 0 0 0 0 0 0 0 0 0 0
26 147 213 457 491 305 199 232 485 655 611 649 616 431 310 231 45 3 0 0 0 0 0 0 0 0 0 0 0 0 0 0
19 200 407 526 398 169 75 224 568 713 665 516 329 43 45 175 37 0 0 0 0 0 0 0 0 0 0 0 0 0 0 0
122 313 525 716 383 73 132 550 417 477 497 366 182 67 84 57 0 0 0 0 0 0 0 0 2 0 0 0 0 0 0 0
366 505 640 742 956 238 313 583 521 508 528 232 30 54 24 44 3 0 0 0 0 0 0 0 0 0 2 0 0 0 0 0
426 522 591 740 827 781 495 479 449 554 449 94 64 53 49 15 2 0 0 0 0 0 0 5 3 0 0 0 0 0 0 0
987 530 575 796 1129 1065 875 667 556 478 204 38 50 0 0 23 1 3 2 0 0 0 3 1 1 2 0 0 0 0 0 0
1111 842 822 883 1192 1245 1272 1082 887 479 143 30 71 63 35 58 1 1 2 0 0 1 2 14 8 13 0 0 0 0 0 0
1012 1000 935 849 925 1060 1010 997 783 404 202 73 56 55 85 47 0 6 1 0 0 1 1 2 16 19 0 0 0 0 0 0

GFSFLT2_con_mucape_078.txt.gz
CAPE
888 691 650 564 514 361 265 348 376 391 364 291 243 183 214 310 438 667 707 530 365 241 180 117 50 0 0 0 0 1 1 0
309 362 421 339 340 157 196 224 228 197 159 132 123 126 172 226 266 380 424 366 248 105 66 22 0 0 0 0 0 0 0 0
67 32 89 64 70 137 153 160 124 94 100 79 24 22 80 136 189 256 311 262 156 29 2 0 0 0 0 0 0 0 0 0
56 15 61 32 27 51 65 93 65 53 29 37 16 121 143 158 127 152 183 124 47 13 0 0 0 0 0 0 0 0 0 0
113 69 43 60 55 2 24 10 18 19 29 91 83 129 164 99 28 12 1 2 0 0 0 0 0 0 0 0 0 0 0 0
158 144 116 71 37 0 1 6 25 3 86 147 164 190 188 123 93 10 1 0 0 0 0 0 0 0 0 0 0 0 0 0
146 80 92 56 3 3 0 58 55 79 140 259 270 250 207 195 155 49 3 0 0 2 0 2 0 0 0 0 0 0 0 0
33 88 51 23 6 5 5 26 109 185 251 291 339 275 335 355 267 158 0 0 10 0 0 0 0 0 0 0 0 0 0 0
46 23 41 13 5 0 4 82 143 149 252 266 298 397 372 366 176 75 0 31 4 0 0 0 0 0 0 0 0 0 0 0
20 25 9 4 4 3 0 0 120 192 198 273 206 282 347 300 195 91 50 14 0 0 0 0 0 0 0 0 0 0 0 0
6 0 0 0 0 0 3 14 159 135 210 207 227 364 417 346 244 128 27 0 0 0 0 0 0 0 0 0 0 0 0 0
0 0 0 0 0 0 16 134 126 177 229 295 337 419 448 219 156 41 0 0 0 0 0 0 0 0 0 0 0 0 0 0
0 0 0 0 15 9 75 73 199 295 222 215 361 398 403 332 96 34 0 0 0 0 0 0 0 0 0 0 0 0 0 0
1 9 2 0 51 98 24 85 166 255 259 359 363 380 350 247 68 16 0 0 0 0 0 0 0 0 0 0 0 0 0 0
13 36 52 134 161 231 29 148 226 321 328 368 318 214 143 103 120 19 0 0 0 0 0 0 0 0 0 0 0 0 0 0
14 23 223 366 368 63 6 42 172 264 319 303 243 141 34 76 53 8 0 0 0 0 0 0 0 0 1 10 3 3 0 0
31 104 292 394 513 497 110 326 260 343 367 312 179 51 20 62 3 26 15 0 2 0 0 0 0 0 0 6 1 0 0 0
167 359 479 505 645 678 525 427 340 347 345 281 178 65 39 48 43 0 3 6 4 1 0 0 0 8 8 19 11 6 3 0
469 432 374 622 679 778 633 605 415 410 303 196 120 39 59 50 23 5 53 6 2 1 0 0 2 2 2 3 1 1 0 0
476 480 434 463 946 949 797 966 647 554 357 238 52 7 66 82 75 47 34 4 1 6 4 0 0 1 1 3 6 0 0 0

GFSFLT2_con_mucape_084.txt.gz
CAPE
174 16 195 290 723 480 339 412 492 522 662 860 923 956 1143 1125 929 699 337 106 82 66 4 0 0 0 0 3 0 0 0 0
31 11 1 195 337 233 157 384 418 549 557 548 718 956 995 799 606 382 154 121 138 64 8 2 0 0 0 0 0 0 0 0
0 27 63 44 130 133 181 187 195 215 237 366 584 720 748 468 233 187 166 154 109 60 18 0 0 0 0 0 0 0 0 0
69 47 58 41 108 33 114 110 0 19 74 129 396 552 487 350 151 172 176 112 70 55 10 0 0 0 0 0 0 0 0 0
228 46 37 42 45 78 106 4 0 0 0 0 234 425 318 150 132 74 46 27 4 2 0 0 0 0 0 0 0 0 0 0
42 18 19 39 50 78 22 0 0 0 0 0 1 56 117 119 99 65 0 0 5 0 0 0 0 0 0 0 0 0 0 0
12 10 4 0 0 36 0 0 0 4 0 0 0 28 79 112 86 13 0 6 1 10 0 0 0 0 0 0 0 0 0 0
28 23 6 4 5 21 2 0 0 0 1 0 0 2 8 8 2 0 7 11 11 14 0 0 0 0 0 0 0 0 0 0
4 9 36 7 18 13 0 0 0 13 14 14 18 23 29 5 0 7 14 7 19 8 0 0 0 0 0 0 0 0 0 0
15 17 5 22 4 7 3 0 18 36 69 70 64 67 85 13 10 23 5 5 17 25 1 0 0 0 0 0 0 0 0 0
63 32 23 8 18 4 5 4 5 4 23 47 78 96 138 72 43 41 50 11 8 13 0 0 0 0 0 0 0 0 0 0
23 3 22 38 34 28 6 3 8 3 7 21 67 53 123 138 92 54 46 36 14 0 0 0 0 0 0 0 0 0 0 0
17 27 11 11 12 2 3 3 0 1 1 3 45 23 75 144 107 69 51 43 9 0 0 0 0 0 0 0 0 0 0 0
0 0 0 2 3 11 2 0 0 0 1 6 2 0 17 49 89 70 46 27 0 0 0 0 0 0 0 0 0 0 0 0
0 0 0 0 0 0 0 0 0 5 10 0 0 0 9 48 65 118 36 10 14 1 0 0 0 0 0 0 0 0 0 0
0 0 0 0 0 0 0 0 0 0 0 0 0 23 43 50 59 81 66 23 50 6 4 0 0 0 0 0 0 0 0 0
0 0 0 0 0 0 0 0 0 0 0 0 0 1 32 55 70 108 76 45 45 6 20 1 0 0 0 0 0 0 0 0
0 0 0 0 0 0 0 0 0 0 5 2 14 4 26 73 104 123 113 81 50 48 12 9 3 4 9 7 0 0 0 0
0 0 0 0 0 0 0 0 0 0 13 22 9 13 80 127 126 111 118 75 64 76 95 63 46 29 5 0 13 10 5 8
0 0 0 0 16 23 0 0 0 26 26 17 19 10 75 145 110 67 89 86 75 90 80 24 19 0 1 0 0 0 1 2

GFSFLT2_con_mucape_087.txt.gz
CAPE
416 373 637 630 623 558 443 451 721 862 1157 1263 1034 928 806 684 470 275 92 4 0 0 0 0 9 12 0 0 0 0 0 0
72 108 380 345 394 348 242 220 669 774 1065 1137 1063 959 670 506 253 69 0 0 0 0 0 14 31 11 0 0 0 0 0 0
84 52 61 166 259 169 208 243 619 682 854 892 899 677 457 112 8 37 35 0 0 0 0 0 0 1 0 0 0 0 0 0
98 70 54 28 178 135 92 113 255 374 497 752 629 545 202 0 3 65 51 0 0 0 0 0 0 0 0 0 0 0 0 0
139 65 11 9 9 69 26 86 156 210 380 373 904 503 84 0 0 0 0 0 0 0 0 0 0 0 0 0 0 0 0 0
51 7 21 3 98 75 16 48 115 166 153 234 547 265 39 0 0 0 0 0 0 0 0 0 0 0 0 0 0 0 0 0
26 0 1 15 11 3 8 19 134 115 134 201 220 213 53 25 7 0 0 0 0 0 0 0 0 0 0 0 0 0 0 0
18 1 4 2 42 32 29 10 45 39 118 236 169 150 77 74 34 0 0 0 2 8 4 0 0 0 0 0 0 0 0 0
44 7 9 24 0 4 13 0 6 19 20 98 109 62 93 66 41 0 0 3 6 22 9 0 0 0 0 0 0 0 0 0
2 19 17 4 21 5 5 0 0 20 35 29 25 72 81 51 11 0 6 12 10 25 29 0 0 0 0 0 0 0 0 0
24 31 35 43 7 8 8 0 18 64 53 22 39 32 16 5 1 0 12 5 12 27 28 0 0 0 0 0 0 0 0 0
21 37 58 61 9 9 2 7 0 40 58 48 68 77 56 2 3 6 9 0 10 30 22 0 0 0 0 0 0 0 0 0
4 10 15 17 24 0 2 28 0 0 49 64 41 74 136 110 21 34 48 30 33 18 2 0 0 0 0 0 0 0 0 0
0 8 11 24 5 30 36 22 6 11 5 2 36 42 68 93 70 63 52 59 65 52 8 0 0 0 0 0 0 0 0 0
0 0 9 6 13 4 4 10 4 1 8 7 2 32 13 27 87 62 75 67 71 61 22 2 2 0 0 0 0 0 0 0
0 0 0 0 5 4 1 1 0 0 1 6 3 0 5 2 7 44 70 84 65 69 26 5 4 0 0 0 0 0 0 0
0 0 0 0 0 0 0 0 0 0 0 0 0 0 0 0 2 11 49 89 120 76 8 22 19 37 24 14 1 0 0 0
0 0 0 0 0 0 0 0 0 0 0 0 0 0 0 0 0 16 46 86 119 101 31 35 32 42 34 32 22 18 19 5
0 0 0 0 0 0 0 0 0 0 0 0 0 0 0 0 2 22 42 87 118 105 49 41 45 59 59 17 30 0 7 0
0 0 0 0 0 0 0 0 0 0 0 0 0 0 0 4 1 7 32 106 147 87 28 43 66 16 49 3 2 1 0 0

GFSFLT2_con_mucape_090.txt.gz
CAPE
675 697 895 914 920 955 852 867 909 1280 1328 1213 1026 678 517 444 347 245 16 11 51 119 65 0 0 0 0 0 0 0 0 0
215 627 677 622 659 653 435 362 402 649 892 1095 842 578 394 298 161 20 0 0 13 69 22 0 0 0 0 0 0 0 0 0
84 252 407 500 351 424 308 226 228 333 748 916 887 448 223 52 0 0 0 0 0 52 57 0 0 0 0 0 0 0 0 0
105 49 84 165 212 112 130 103 19 106 541 668 523 265 79 0 0 0 0 0 1 71 21 0 0 0 0 0 0 0 0 0
68 108 77 38 92 164 62 39 2 98 384 396 316 217 36 0 0 0 0 0 0 8 0 0 0 0 0 0 0 0 0 0
26 35 54 29 18 108 58 1 5 23 126 259 364 162 24 0 0 0 0 0 0 0 2 0 0 0 0 0 0 0 0 0
35 1 3 2 11 76 6 5 7 6 110 160 262 136 10 0 0 0 0 0 0 0 6 2 0 0 0 0 0 0 0 0
17 3 3 12 10 30 9 6 0 14 39 136 274 130 37 4 0 0 1 0 0 1 9 5 0 0 0 0 0 0 0 0
18 15 11 8 34 31 4 7 0 21 87 149 212 158 46 7 0 0 0 8 10 21 31 7 1 0 0 0 0 0 0 0
50 34 18 2 30 36 43 28 14 30 110 152 189 189 119 23 0 0 0 12 19 40 27 19 0 0 0 0 0 0 0 0
24 11 11 3 25 21 19 0 7 58 96 120 137 157 159 101 29 2 8 6 36 45 48 20 4 0 0 0 0 0 0 0
28 27 40 10 2 15 31 8 56 96 100 128 126 150 168 125 58 5 9 18 34 30 35 36 17 0 0 0 0 0 0 0
9 40 46 17 10 17 12 0 40 75 73 51 27 58 85 79 35 14 13 23 28 22 13 30 0 0 0 0 0 0 0 0
0 59 14 18 16 5 7 2 83 66 20 35 42 45 65 28 31 20 23 22 15 8 43 52 7 0 0 0 0 0 0 0
4 6 1 1 0 5 4 4 49 65 81 56 29 72 115 130 98 40 28 59 29 21 46 53 41 0 0 0 0 0 0 0
0 14 13 16 11 0 10 18 8 5 0 55 85 67 50 107 103 98 86 51 45 37 47 45 53 11 1 0 0 0 0 0
0 2 2 11 0 0 0 0 11 9 0 3 2 9 38 30 32 49 43 46 61 63 67 55 42 40 20 13 22 17 12 11
0 0 0 0 0 0 0 0 0 0 0 0 0 0 0 0 0 0 2 20 43 77 59 55 73 44 37 45 17 20 1 16
0 0 0 0 0 0 0 0 0 0 0 0 0 0 0 0 0 0 0 20 42 50 61 71 74 64 51 66 16 26 8 4
0 0 0 0 0 0 0 0 0 0 0 0 0 0 0 0 0 0 0 1 9 16 31 69 86 80 89 68 55 9 21 5

GFSFLT2_con_mucape_093.txt.gz
CAPE
137 140 295 537 689 1172 1436 1416 1338 1259 987 757 602 607 631 692 597 398 206 212 203 272 10 0 0 0 0 0 0 0 0 0
180 326 165 489 486 538 1187 1228 1209 1154 854 634 379 374 403 321 226 126 168 419 364 180 9 0 0 0 0 0 0 0 0 0
111 274 512 590 461 670 850 989 1089 1096 817 470 339 650 498 239 50 51 168 308 211 73 3 0 0 0 0 0 0 0 0 0
108 129 239 238 366 517 455 1043 1473 1250 1092 676 546 566 458 63 24 32 72 190 104 50 15 0 0 0 0 0 0 0 0 0
87 82 42 96 129 187 171 182 315 409 1202 360 325 292 93 77 16 0 48 152 102 37 2 0 0 0 0 0 0 0 1 4
29 40 77 124 81 167 56 13 68 420 377 437 114 94 75 40 0 0 0 75 114 23 0 0 0 0 0 0 0 0 0 2
23 24 42 56 57 86 71 33 20 94 122 236 82 79 30 0 0 0 0 0 1 10 0 0 0 0 0 0 0 0 0 4
39 16 52 12 13 29 98 9 11 53 92 33 108 130 10 0 0 0 0 0 3 6 0 0 0 0 0 0 0 0 0 5
36 1 16 1 0 3 22 34 13 31 65 94 83 80 4 0 0 0 0 0 10 8 0 6 1 0 0 0 0 0 0 1
21 0 9 0 7 26 3 13 18 18 38 71 106 73 5 11 0 15 2 1 11 11 14 15 17 8 0 0 0 0 0 0
9 0 4 10 12 33 17 31 21 11 85 72 95 71 15 0 7 0 0 2 11 20 33 34 55 27 0 0 0 0 0 0
8 7 11 6 32 11 2 25 24 16 28 59 83 81 45 18 10 12 2 2 14 27 41 57 71 52 0 0 0 0 0 0
6 29 12 4 25 24 4 26 12 12 71 49 60 77 89 63 35 44 21 21 37 31 43 51 74 75 0 0 0 0 0 0
1 0 4 6 9 9 25 6 2 1 56 48 68 72 97 118 92 60 59 28 30 31 23 48 56 44 0 0 0 0 0 0
0 0 12 3 4 17 14 6 2 1 49 21 47 45 64 68 87 90 74 53 23 20 31 31 46 43 1 0 0 0 0 0
1 0 19 2 1 24 9 19 0 1 5 19 1 32 53 65 39 63 74 67 30 16 26 17 44 36 38 3 2 0 2 0
0 0 4 0 5 7 3 4 21 11 12 22 11 21 40 50 89 74 128 83 48 49 65 33 46 50 47 28 24 11 5 1
0 0 3 1 9 6 0 0 6 11 13 1 0 1 0 41 35 79 114 101 44 65 68 62 57 57 59 48 26 28 23 6
0 0 0 1 2 3 0 0 1 0 0 2 0 0 1 0 49 74 83 73 51 57 47 56 58 59 49 39 49 31 40 34
0 0 0 0 0 0 0 0 0 0 1 3 0 0 7 0 6 34 38 41 35 12 2 5 17 34 44 32 40 56 66 35

GFSFLT2_con_mucape_096.txt.gz
CAPE
174 73 86 79 596 1721 1582 1720 1567 1393 1121 1017 983 854 742 825 660 850 626 377 346 57 1 0 0 0 0 0 0 0 0 0
258 36 29 132 295 282 294 867 1175 1141 818 845 672 642 638 648 521 396 336 409 231 63 10 0 0 0 0 0 0 0 0 0
426 21 0 39 382 255 58 192 714 813 682 743 624 1025 817 581 328 230 326 345 152 66 2 0 0 0 0 0 0 0 0 2
294 144 101 98 151 261 102 78 742 1199 811 1042 609 1000 724 348 175 254 374 290 106 68 29 0 0 0 0 0 0 0 0 2
115 335 277 586 646 878 450 215 514 761 698 520 601 909 757 330 75 162 386 162 128 23 0 0 0 0 0 0 0 0 2 2
277 146 402 486 386 470 302 202 638 458 706 462 1077 902 651 154 16 93 235 161 143 63 23 38 9 0 0 0 0 0 2 0
191 250 301 236 424 466 215 665 156 462 321 371 561 348 86 66 74 111 119 169 168 138 100 48 11 0 0 0 0 1 1 2
123 175 107 153 189 178 91 68 169 317 444 220 221 163 34 30 59 38 104 179 184 138 82 9 0 0 0 0 0 0 0 2
12 8 40 21 31 40 137 85 71 190 184 150 45 13 15 14 69 2 1 50 76 77 24 0 0 0 0 0 0 0 0 0
2 28 0 9 49 12 26 73 39 62 163 141 27 5 33 70 36 2 0 10 29 3 0 5 5 0 0 1 0 0 0 5
10 1 0 1 0 4 20 18 32 43 92 87 23 11 44 82 79 7 0 0 0 0 2 8 16 7 5 6 0 0 0 0
43 4 8 0 10 10 28 3 14 24 9 59 6 4 31 76 38 33 3 0 0 2 3 24 47 53 39 19 0 0 0 0
11 5 0 4 0 4 16 8 7 17 8 6 25 8 79 98 42 50 25 10 16 9 11 24 63 62 62 37 0 0 0 0
4 2 4 7 5 9 9 22 15 22 14 10 19 49 100 84 58 90 87 46 37 20 18 27 59 69 71 45 1 0 0 0
0 0 0 21 3 2 11 31 31 36 25 15 11 34 81 78 79 84 109 109 71 53 21 14 48 76 68 43 3 0 0 0
0 0 0 10 0 2 2 29 0 3 5 8 24 15 37 93 101 111 123 113 107 73 18 27 34 43 48 43 31 7 0 0
0 0 0 0 3 7 2 13 4 7 6 9 37 2 44 35 61 62 93 107 131 139 75 55 45 66 9 50 34 41 24 13
0 0 0 0 0 6 9 2 10 0 0 2 53 47 105 56 40 63 71 131 157 193 212 167 86 54 79 29 29 31 26 26
13 0 0 3 0 0 5 1 0 11 19 6 2 0 6 12 55 70 88 128 153 183 218 203 222 127 120 70 38 25 26 27
10 14 5 0 0 1 4 0 0 3 2 23 20 2 28 72 67 64 75 33 173 225 335 245 266 232 212 168 132 105 1 30

GFSFLT2_con_mucape_099.txt.gz
CAPE
1101 426 173 52 170 40 84 1338 1407 1453 1488 1405 1239 944 759 838 723 461 245 152 59 4 3 0 0 0 0 0 0 0 6 1
832 45 3 146 169 10 3 931 1032 1078 1151 1032 818 634 662 652 678 490 257 140 64 2 0 0 0 0 0 0 0 0 3 1
677 330 27 16 119 113 190 493 543 858 833 750 663 941 735 660 457 432 346 90 46 24 2 0 0 0 0 0 0 12 12 2
595 384 27 46 150 1 89 34 171 820 1227 1053 882 928 668 469 386 332 213 48 34 15 0 0 0 0 0 0 2 3 15 3
258 404 110 16 103 278 574 16 78 227 990 1081 525 918 832 928 643 460 248 22 0 0 0 0 0 0 0 6 0 0 18 6
403 415 417 401 374 754 684 208 2 183 1258 909 981 903 656 954 636 284 287 71 0 0 0 6 3 0 0 0 0 10 14 4
287 351 493 554 431 810 713 331 579 219 452 926 660 475 551 275 312 318 204 172 34 41 0 51 43 2 0 0 1 3 2 2
156 180 194 309 513 529 663 168 222 204 207 513 858 847 497 108 282 367 312 267 125 98 92 62 43 1 0 0 0 0 6 9
49 48 130 148 161 274 512 502 383 355 81 218 630 251 255 146 211 340 220 288 431 229 160 36 2 0 0 0 0 2 13 21
32 3 13 57 66 171 299 108 398 149 130 85 83 73 175 139 100 111 243 232 297 202 115 5 0 0 0 0 0 4 6 13
1 0 22 35 12 4 112 152 128 169 114 81 80 30 46 18 35 56 240 237 224 178 70 23 0 0 0 0 0 0 0 1
0 1 0 0 0 11 10 1 89 79 119 40 11 22 13 29 16 84 168 184 181 74 52 10 0 0 0 0 6 0 0 0
0 0 0 0 0 0 0 18 50 55 89 68 28 11 19 2 18 102 176 74 35 40 61 129 19 24 9 8 21 1 0 0
0 1 2 0 0 0 7 6 7 39 43 46 19 4 5 5 40 129 144 82 84 115 160 61 34 9 26 32 18 0 0 0
0 0 9 2 7 1 29 24 32 26 38 27 23 23 16 3 66 147 161 161 149 174 177 126 54 18 39 38 2 0 0 0
16 0 3 1 4 0 0 3 22 17 9 25 21 5 12 66 88 172 208 193 176 157 128 156 148 35 25 39 33 21 83 37
0 0 0 0 8 8 0 2 16 15 4 10 13 33 7 85 121 190 252 180 223 231 175 151 125 139 31 3 0 6 35 31
11 0 0 0 6 1 2 2 3 0 8 0 20 24 53 82 94 179 197 217 218 209 172 117 163 223 190 150 10 18 10 28
6 2 0 0 0 0 5 6 14 4 2 9 12 2 2 0 50 79 114 157 169 203 166 256 227 232 228 207 218 143 121 32
7 5 6 0 0 0 0 3 1 5 4 15 4 9 116 2 2 0 0 66 76 174 320 174 190 303 409 437 323 241 200 66

GFSFLT2_con_mucape_105.txt.gz
CAPE
1620 1316 1091 1422 1739 2184 2002 1713 1416 1069 446 661 679 403 522 773 801 693 416 220 185 131 35 15 15 0 0 0 0 0 0 0
997 991 790 365 592 1394 1689 1662 1329 670 476 350 320 356 476 576 534 394 234 183 158 121 22 0 0 0 0 0 0 0 0 0
617 625 298 21 0 74 352 736 710 434 253 138 141 168 339 347 222 215 188 134 95 36 9 0 0 0 0 0 0 0 0 0
829 640 293 106 4 0 6 21 127 213 193 16 114 143 176 137 154 162 106 58 31 3 0 0 0 0 0 0 0 0 0 0
920 589 290 90 14 0 0 15 39 41 102 3 123 244 196 109 34 26 10 2 0 0 0 0 0 0 0 0 0 0 0 0
547 410 138 0 0 0 1 0 2 10 5 17 147 209 189 103 0 3 0 0 0 0 0 0 0 0 0 0 0 0 0 0
428 286 146 0 0 0 8 34 20 30 3 103 166 159 145 50 0 0 0 0 0 0 0 0 0 0 0 0 0 0 0 0
298 217 198 6 0 0 5 12 10 12 23 96 127 93 110 18 0 0 0 0 0 0 0 0 0 0 0 0 0 0 0 0
235 161 156 80 40 2 13 32 23 44 78 134 138 159 255 26 0 0 0 0 0 0 0 0 0 0 0 0 0 0 0 0
157 148 90 56 73 43 47 51 37 45 50 129 125 206 161 70 14 0 0 0 0 0 0 0 0 0 0 0 0 0 0 0
65 37 23 19 32 90 93 73 28 73 70 104 93 124 163 81 49 7 18 0 0 0 0 0 0 0 0 0 0 0 0 0
1 0 6 9 1 14 90 91 42 24 9 59 103 97 87 68 74 40 39 8 38 0 19 5 0 0 0 0 0 0 0 0
0 1 8 1 0 0 6 42 57 38 12 55 108 87 38 28 65 50 86 65 52 36 52 26 0 0 0 0 0 0 0 0
0 8 35 2 0 0 0 0 31 69 25 18 92 24 9 20 21 40 62 52 84 67 64 42 3 0 0 1 0 0 0 0
0 22 0 0 0 0 0 0 0 28 85 49 19 32 30 3 11 34 51 42 44 40 60 66 5 0 0 8 0 0 0 0
5 34 1 0 5 3 2 1 0 0 20 25 26 24 22 10 10 27 38 33 25 11 34 55 20 23 12 32 9 15 4 0
0 36 82 0 12 0 0 4 0 2 18 42 7 18 8 11 7 25 25 10 3 6 15 58 59 50 35 26 35 43 13 3
0 74 10 0 10 11 0 0 2 6 9 1 10 27 6 12 5 1 15 4 3 4 39 62 52 64 79 66 29 43 37 27
0 31 11 4 3 0 0 1 9 5 11 17 10 13 17 15 13 14 13 7 7 6 0 23 39 63 71 50 53 29 34 33
0 1 19 2 0 15 0 0 0 8 11 37 24 16 13 21 12 6 17 3 20 22 3 5 52 49 45 68 59 52 42 39

GFSFLT2_con_mucape_108.txt.gz
CAPE
1454 1499 1718 2032 2206 2182 2028 1821 1373 1076 609 341 653 594 539 826 878 901 698 483 396 292 99 31 6 13 0 8 0 0 0 0
1429 1280 1194 1395 1735 1871 2086 1850 1263 755 312 288 252 34 173 577 632 725 568 390 283 189 67 15 0 0 6 0 0 0 0 0
1060 1004 814 549 378 1009 1725 1688 1350 668 304 242 156 48 129 580 446 354 318 205 178 146 54 22 1 0 1 0 0 0 0 0
608 682 466 370 206 15 141 875 823 600 272 211 141 46 164 284 292 173 166 141 121 86 26 0 0 0 0 0 0 0 0 0
809 710 616 420 180 58 6 0 82 269 185 152 168 140 156 180 182 77 43 53 4 4 0 0 0 0 0 0 0 0 0 0
962 861 524 398 97 49 0 0 0 106 185 120 109 102 82 157 136 23 0 0 0 0 0 0 0 0 0 0 0 0 0 0
993 588 431 253 0 0 0 1 4 21 62 20 54 111 92 73 132 30 0 0 0 0 0 0 0 0 0 0 0 0 0 0
567 478 279 29 0 0 0 1 12 8 8 6 38 76 91 49 70 1 0 0 0 0 0 0 0 0 0 0 0 0 0 0
431 196 148 69 7 2 0 5 6 24 5 5 0 93 87 67 98 1 0 0 0 0 0 0 0 0 0 0 0 0 0 0
323 281 178 111 54 25 0 0 36 45 26 81 76 50 71 77 101 0 0 0 0 0 0 0 0 0 0 0 0 0 0 0
353 199 129 19 54 41 0 10 8 34 17 80 110 103 82 53 76 0 0 0 0 0 0 0 0 0 0 0 0 0 0 0
303 97 65 3 31 86 45 55 7 54 66 39 109 111 88 46 49 0 0 0 0 0 0 0 0 0 0 0 0 0 0 0
196 17 9 12 0 88 139 80 0 31 39 41 72 78 130 74 4 0 0 0 0 0 0 0 0 0 0 0 0 0 0 0
46 0 0 4 0 2 51 49 24 8 6 38 93 66 56 21 1 0 0 0 1 0 12 15 0 1 0 0 0 0 0 2
0 0 2 0 0 0 5 39 52 26 22 61 45 24 47 23 15 2 1 0 0 0 5 9 15 11 0 0 0 0 0 0
0 0 2 12 0 0 0 0 4 82 30 39 62 74 38 39 41 11 11 7 7 0 0 17 22 17 0 0 0 0 8 0
0 0 1 2 0 0 0 0 0 9 79 107 26 83 79 71 70 47 28 34 20 13 4 52 66 16 4 0 5 3 10 7
0 0 1 1 0 2 4 3 0 18 2 8 58 35 71 64 8 30 4 29 43 43 53 47 63 4 29 9 7 0 30 15
0 1 1 16 13 1 4 0 0 0 8 12 16 7 38 47 15 17 11 38 37 61 47 31 18 6 6 8 8 11 11 4
0 0 1 1 14 15 0 0 0 4 0 22 27 12 18 10 18 11 12 41 44 39 31 21 7 17 43 30 28 47 28 36

GFSFLT2_con_mucape_114.txt.gz
CAPE
1575 1434 1636 1844 1899 2014 1963 1813 1635 1577 1306 1013 893 802 754 776 782 932 1015 919 961 788 635 225 275 80 1 0 0 0 0 0
1609 1427 1486 1718 1757 1757 1884 1788 1649 1375 1044 951 778 277 272 684 550 650 898 939 818 725 254 99 144 14 0 0 0 0 0 0
1503 1557 1591 1553 1874 1808 1835 1770 1697 1334 874 567 464 308 109 385 419 570 707 612 599 401 169 59 43 9 0 0 0 0 0 0
1544 1572 1510 1547 2021 2040 2171 1716 1476 1368 885 458 333 142 125 127 210 363 426 431 352 208 125 70 15 15 21 6 0 0 0 0
1252 1434 1588 1680 1702 1790 1421 1850 1538 1168 889 500 256 119 107 72 153 213 210 243 109 82 103 90 56 18 22 4 0 0 0 0
1177 1280 1318 1302 1260 1353 1431 1658 1146 1126 931 486 255 223 180 115 205 232 169 105 54 60 104 102 69 16 12 2 0 0 0 0
842 1065 1044 845 461 327 341 427 739 661 575 692 285 209 111 76 136 133 111 63 57 62 81 58 26 2 0 0 0 0 0 0
564 758 918 576 453 491 442 305 69 8 378 180 239 192 116 68 71 67 57 18 29 17 41 12 0 0 0 0 0 0 0 0
444 451 597 455 650 663 404 78 0 6 56 155 112 152 94 62 72 59 64 41 7 0 0 0 0 0 0 0 0 0 0 0
340 412 598 680 813 548 155 2 0 1 9 108 133 70 66 60 75 26 4 79 0 0 0 0 0 0 0 0 0 0 0 0
293 468 691 827 724 306 27 10 0 0 0 4 35 77 51 47 60 34 47 96 0 0 0 0 0 0 0 0 0 0 0 0
325 486 768 855 498 162 37 43 0 0 0 1 56 21 78 39 28 33 57 86 0 0 0 0 0 0 0 0 0 0 0 0
408 596 903 633 353 79 42 40 16 0 5 3 16 3 25 3 17 21 33 84 0 0 0 0 0 0 0 0 0 0 0 0
498 804 746 492 265 147 53 132 58 9 2 23 3 11 0 17 26 30 2 83 0 0 0 0 0 0 0 0 0 0 0 0
580 803 653 444 225 121 292 206 50 17 9 9 3 10 38 29 45 51 46 96 0 0 0 0 0 0 0 0 0 0 0 0
586 736 570 418 163 30 59 107 25 7 4 10 3 25 16 27 15 35 49 84 0 0 0 0 0 0 0 0 0 0 0 0
521 666 501 379 146 34 88 73 15 41 29 73 19 22 14 48 33 44 32 69 12 0 0 0 0 0 0 0 0 0 0 0
506 663 524 365 149 17 23 18 50 42 22 30 83 60 40 20 23 28 22 26 52 0 0 0 0 0 0 0 0 6 6 0
414 661 582 388 150 18 19 23 47 121 32 18 48 41 85 30 16 17 12 25 26 6 0 0 0 0 2 4 19 49 32 3
265 563 547 409 175 0 0 1 11 11 10 18 33 33 17 18 37 40 36 33 38 51 2 0 9 29 53 61 52 82 62 16

GFSFLT2_con_mucape_117.txt.gz
CAPE
1853 1792 1728 1716 1853 1980 1813 1887 1807 1866 1763 1205 1357 1003 819 971 961 1027 1048 992 1042 857 861 689 447 255 142 49 0 0 1 10
1769 1729 2305 2202 2002 1915 1870 1727 1785 1825 1393 1212 957 683 767 911 863 991 951 899 878 912 669 538 285 112 27 0 0 0 0 3
1780 1558 2318 2403 1971 1915 1780 1681 1570 1519 1268 892 663 856 920 631 326 586 795 754 755 518 429 270 100 7 0 0 0 0 0 3
1553 1747 1778 2384 2139 1722 2095 1829 2176 2013 1653 1195 1303 782 626 473 296 464 743 569 455 266 225 138 39 31 2 0 0 0 0 1
1443 1639 2046 2215 2194 1985 1985 1854 1793 1625 1675 1531 997 361 314 652 613 851 922 506 335 201 120 251 151 81 16 0 3 0 6 1
1352 1329 1779 2126 2198 1795 1694 1731 1505 1228 1026 1011 625 394 558 451 771 846 787 536 326 180 159 103 139 64 16 0 0 0 0 5
1186 1229 1353 1512 1649 1809 1731 1525 996 1173 989 749 529 413 504 87 174 323 384 241 266 103 46 41 27 2 25 3 0 0 0 5
878 1154 1203 1324 1485 1464 1398 1557 984 823 872 640 424 340 353 200 120 183 217 115 149 37 58 99 124 85 16 0 0 0 0 5
616 825 1116 1165 1184 1063 774 635 617 635 745 388 242 267 178 150 57 77 87 68 45 21 105 63 142 17 3 0 0 0 4 5
264 416 798 894 977 840 408 529 611 437 116 163 193 203 181 100 63 44 26 45 14 22 98 61 114 0 0 0 0 0 5 4
34 456 692 799 791 730 501 723 592 118 17 47 118 177 184 206 97 44 17 38 12 8 46 81 36 0 0 0 0 0 4 2
14 563 573 623 581 571 694 781 308 8 8 42 54 128 61 65 71 31 38 9 20 8 9 51 4 0 0 0 1 0 7 4
182 489 522 456 550 731 864 556 118 15 0 0 16 7 57 76 4 31 26 7 8 6 0 8 0 0 2 0 0 0 0 3
289 482 307 562 698 933 689 364 23 126 39 13 3 23 18 38 35 13 7 29 1 2 0 0 0 0 0 3 1 0 0 0
300 423 292 543 830 817 501 226 56 102 41 20 56 1 3 4 40 33 15 24 14 8 0 0 0 1 0 0 12 32 1 0
337 315 419 695 920 636 411 220 39 320 47 44 14 0 0 16 1 19 12 23 5 19 0 0 0 0 0 0 0 0 1 0
291 275 473 834 792 585 404 176 277 180 89 112 36 18 4 6 27 53 39 34 4 13 0 0 2 1 0 0 0 0 0 1
98 257 544 804 707 530 381 170 339 77 85 30 65 19 10 42 44 35 52 17 4 37 0 0 0 0 0 0 0 0 0 2
72 143 497 741 654 481 355 167 113 77 72 108 105 59 41 5 12 15 11 20 58 71 1 0 0 0 0 0 0 0 0 1
119 332 498 606 625 442 288 168 54 99 71 91 186 64 12 7 5 20 21 32 57 69 25 0 0 0 0 3 0 0 0 0

GFSFLT2_con_mucape_120.txt.gz
CAPE
2538 2087 1897 1526 1967 2114 1893 1643 1759 1884 2136 1987 1524 1010 964 917 1005 1220 1169 1157 1262 1123 916 708 705 598 444 259 122 50 71 35
2580 2492 2108 2296 2084 1976 2072 1814 1672 1832 2047 1875 1416 1012 737 935 994 1090 1134 1169 1111 971 670 623 659 525 383 214 76 0 38 27
2784 2739 2345 2457 2609 2170 1929 1962 1820 1842 1987 1712 1339 1526 1330 964 787 754 1089 954 925 755 515 530 572 439 291 125 0 17 24 17
2841 2769 2589 2385 2306 2479 2382 2270 2486 2543 2470 2046 1526 1516 1441 931 677 736 841 735 697 511 456 428 430 365 131 5 30 40 16 13
2492 2594 2622 2478 2168 2264 2391 2291 2533 2299 2332 2386 1950 1520 1608 1004 702 876 936 680 382 532 364 489 580 225 63 57 102 36 15 13
2433 2479 2203 2323 2014 2157 2237 2860 2414 2809 2363 2496 2297 1721 1213 893 707 357 813 885 770 654 419 469 213 73 123 163 124 31 12 8
1816 2416 2276 2014 1924 2012 2089 2426 2655 2628 2561 2340 2026 1599 1154 888 777 730 738 983 871 421 287 214 231 273 131 214 116 36 15 5
1183 1881 2303 2151 1768 1741 1911 2007 2259 2327 2109 1999 2063 1501 1018 462 428 1278 445 631 550 233 245 215 287 266 223 193 95 17 10 6
152 867 1839 2320 2133 1704 2100 1804 1647 2092 1767 1673 1768 1298 1075 498 291 490 316 153 154 136 184 154 200 216 237 207 67 16 6 6
0 11 809 1891 2129 2316 1685 1713 1441 1487 1882 1329 1431 1070 830 577 407 244 302 119 84 51 132 164 220 240 200 194 48 15 13 17
0 0 381 1201 1786 2038 2077 1734 1143 1164 1669 1465 861 698 753 335 303 136 192 63 26 18 92 221 238 226 201 143 30 30 30 17
0 0 79 865 1458 1886 1597 936 567 566 931 857 933 682 257 294 177 90 92 34 15 18 42 161 225 235 115 46 60 67 64 40
17 64 323 957 1393 1517 1055 673 575 480 683 456 171 414 271 154 155 193 53 70 33 21 10 233 181 186 173 117 64 107 87 25
230 410 720 946 947 1145 779 639 512 624 737 143 45 117 304 155 206 63 79 44 19 23 4 131 135 207 88 65 47 43 38 34
296 425 742 740 915 785 940 628 547 785 375 64 75 250 347 242 105 93 10 27 26 26 3 37 138 143 144 16 25 20 35 44
371 531 613 535 730 794 1032 955 906 615 407 391 357 312 212 152 23 15 6 2 18 10 12 24 179 139 144 54 45 22 27 40
516 558 306 867 1028 1106 1206 1213 901 617 257 326 312 49 5 48 0 8 4 3 9 13 14 154 162 155 137 80 58 72 59 38
200 237 448 504 771 1103 1134 1167 730 692 550 527 367 73 0 0 0 3 13 11 21 9 1 58 143 194 126 130 80 40 64 61
27 23 292 687 938 701 826 776 585 442 566 456 277 53 0 0 10 1 8 21 13 5 18 111 135 211 193 139 76 26 27 47
50 73 13 449 997 791 828 642 431 331 483 342 198 74 0 0 12 17 10 30 30 35 6 62 158 259 219 214 94 71 40 28

GFSFLT2_con_mucape_123.txt.gz
CAPE
2557 2184 1805 1659 1997 2128 1841 1909 2019 2250 2280 2229 2023 1620 1024 706 872 830 841 875 999 1146 833 740 646 523 458 356 198 252 261 206
2704 2578 2351 2297 2319 2084 1849 1616 1834 2051 2265 2091 1933 1500 913 934 875 863 1127 1297 1087 996 635 553 539 479 416 316 182 74 228 69
2851 2913 2665 2723 2524 2275 2032 1758 1652 1784 2127 2068 1927 1762 1245 1086 788 968 1251 1077 1002 770 537 482 475 434 382 278 132 16 56 63
2907 3050 2877 2841 2250 2580 2403 2443 2154 2189 2398 2466 2431 2121 1762 1186 799 782 1004 875 772 510 368 308 368 343 342 201 169 44 45 77
2555 2989 3148 2880 2643 2572 2424 2438 2334 2301 2510 2721 2747 1979 2117 1606 1585 858 1078 731 921 561 231 611 607 461 335 225 104 75 43 80
2257 2714 3133 2916 2652 2612 2729 2616 2578 2634 2430 3162 2905 2369 2275 1544 1742 1333 901 944 1027 633 494 371 547 422 120 46 203 27 25 61
1718 2648 3002 2818 3010 2418 2628 2855 2557 2525 2733 3104 2972 2386 1959 1685 1657 943 817 1111 748 820 593 659 447 115 30 197 165 46 20 29
1078 1918 2712 2729 2813 2384 2532 3069 2753 2693 2887 2816 3239 2462 2303 1546 1461 1524 1050 1140 797 357 683 182 175 154 152 127 70 44 14 28
113 1002 1771 2801 2516 2409 2404 2629 2709 2824 2848 3278 3003 2689 2242 1789 1248 1444 999 570 180 165 574 110 122 130 179 166 69 36 7 26
0 0 820 2153 2756 2379 2560 2569 2399 2716 2690 2515 2718 2835 2192 1831 1336 1203 788 272 90 79 89 87 117 194 227 94 51 22 10 20
0 0 121 1399 2092 2521 2383 1773 1907 2082 2546 2234 1775 2232 2031 1651 1213 685 696 641 121 80 53 65 193 129 182 119 112 27 18 11
0 0 67 351 1550 2384 2548 2332 1794 1788 1934 2206 2160 2094 1833 1546 921 625 744 205 137 60 38 57 202 228 138 107 62 47 39 32
10 27 305 48 370 1322 2261 2441 1719 1242 1793 2161 1968 1496 1613 943 801 431 337 86 230 44 33 23 174 193 161 76 88 87 99 42
279 248 280 364 383 1043 1848 1919 1074 1129 1374 1420 1454 1363 920 841 679 142 154 293 16 55 15 14 17 195 141 37 76 85 67 34
436 352 465 732 793 1187 1108 1333 919 1274 1004 780 975 664 896 740 385 126 101 39 127 45 35 16 0 94 121 81 44 54 43 37
661 630 628 841 1043 1262 989 871 903 907 940 701 822 664 565 466 597 164 92 103 97 25 33 17 11 54 137 131 128 38 44 43
294 785 772 824 858 1074 910 1122 1171 1184 1282 786 707 672 618 757 590 217 41 67 115 13 16 28 27 74 127 119 145 167 100 52
59 254 363 423 800 809 872 1258 1450 1415 1069 823 798 954 720 517 412 99 26 16 41 1 15 32 5 54 106 191 147 130 43 163
164 53 190 329 698 717 979 1204 1287 1445 837 708 979 279 96 64 44 2 0 0 4 3 10 12 20 36 57 154 191 123 182 201
36 148 129 74 314 507 799 1423 1231 1279 1000 908 888 369 57 32 3 3 0 0 3 16 3 4 11 6 44 174 221 140 193 149

GFSFLT2_con_mucape_126.txt.gz
CAPE
2004 1572 1438 1573 1819 1762 1798 2093 1687 2069 2061 2122 2035 1827 1548 1267 610 427 360 595 808 1011 959 717 674 564 389 277 213 183 94 231
2520 2121 1764 1841 1803 1771 1634 1816 1648 1687 2324 2148 1937 1737 1422 1026 798 851 949 944 866 1068 730 621 444 420 358 259 203 143 111 183
3070 2539 2162 2216 2099 1915 1545 1557 1640 1851 2198 2130 2002 1646 1380 958 725 673 1000 981 1106 812 566 442 286 274 278 242 162 100 66 233
3335 2931 2616 2619 2206 2145 1989 1843 1709 1814 2045 2016 1964 1881 1429 985 833 560 1096 1074 949 673 443 238 148 163 228 219 129 111 84 85
3056 3309 2978 2804 2091 2533 2051 2105 2015 2024 2189 2356 2060 2067 1769 1164 1213 808 1100 940 778 504 407 149 488 268 228 197 133 115 28 14
2793 3145 3130 2743 2574 2212 2206 2242 2154 2155 2056 2317 2283 2136 1845 1607 1078 1078 920 716 751 489 196 327 364 290 227 231 82 94 21 0
2532 3047 3221 2858 2861 2244 2004 2222 2252 2262 2268 2244 2415 2136 1796 1483 1261 986 765 645 613 547 423 274 322 282 185 77 40 80 22 3
2563 2721 3172 2951 2660 2430 1973 2138 2375 2406 2397 2310 2474 2160 1820 1617 1494 1140 690 555 584 502 368 225 191 107 24 34 37 46 8 0
1767 2557 3002 2955 2794 2849 2223 2088 2581 2274 2237 2717 2442 2503 2163 1614 1414 1121 835 505 512 426 123 139 134 78 62 75 38 23 11 0
636 1271 1882 3015 2654 2456 2090 2379 2265 2567 2305 2450 2592 2587 2132 1776 1448 1262 942 493 324 139 72 62 75 36 43 78 78 20 9 1
0 7 1237 1829 2691 2332 2063 1798 2157 2099 2586 2467 2458 2580 2130 1816 1448 1197 872 399 240 163 50 39 43 46 49 67 85 20 0 12
0 0 0 299 1673 2410 2278 2053 1785 1773 1853 2419 2105 2041 2254 1905 1474 1235 802 598 385 113 87 40 48 73 67 83 65 16 0 2
0 7 27 20 325 1193 1774 2135 1895 1680 1472 1571 2115 1670 1792 1831 1398 1084 881 520 343 197 79 20 22 45 46 74 63 19 11 11
1 281 313 381 8 11 740 1589 2400 1956 1422 1315 1566 1862 1726 1541 1527 1141 1121 824 270 171 53 56 9 18 11 56 21 30 63 37
357 507 502 514 296 89 945 1552 1663 1650 1533 1494 1204 1753 1498 1675 1228 841 670 672 447 125 156 63 15 12 35 17 0 0 28 27
356 631 881 720 927 594 1071 1173 1251 1180 1001 1252 1472 1736 1557 1417 1143 671 435 519 242 104 170 11 34 12 29 45 19 1 0 27
180 246 534 933 1054 1023 1367 1019 845 919 560 771 993 1433 1139 1116 826 442 187 107 64 208 55 49 75 28 2 0 13 30 17 0
391 193 125 267 448 470 1116 1233 648 514 701 638 986 1022 1111 890 539 508 209 90 81 76 27 63 43 44 25 8 0 33 6 0
11 28 75 288 287 375 518 841 763 799 975 882 1131 997 1083 642 513 477 221 132 88 59 112 85 13 6 16 3 8 56 22 4
10 0 48 255 178 173 426 597 826 872 1408 937 920 729 411 809 357 433 375 59 25 11 34 31 4 12 27 7 20 59 59 57

GFSFLT2_con_mucape_129.txt.gz
CAPE
856 985 1410 1485 1538 1813 2031 1957 1694 1920 1561 1991 2026 1873 1507 1071 955 495 407 368 768 640 768 884 834 808 630 339 203 111 210 234
858 947 1212 1392 1336 1519 1908 1727 1668 1875 1605 1817 1957 1750 1434 1121 832 542 587 627 988 1049 841 820 745 609 446 258 153 95 259 159
1118 1047 1121 1344 1375 1341 1620 1782 1499 1799 1625 1872 1935 1707 1463 1234 1079 657 943 928 1003 937 726 622 581 428 358 271 176 47 175 153
1884 1370 1299 1415 1548 1407 1352 1573 1361 1230 1547 2128 1874 1738 1491 1159 922 662 853 835 1015 784 610 446 324 226 203 235 194 65 179 231
2256 2047 1626 1669 1800 1409 1283 1339 1449 1249 1353 1928 2186 1805 1475 1254 944 759 690 902 748 660 428 237 206 164 145 184 183 30 189 247
2534 2317 2094 1991 1933 1911 1358 1442 1305 1422 1505 1651 1670 1867 1692 1306 1098 917 758 816 777 582 327 142 192 156 149 180 166 0 54 39
2664 2513 2338 2275 2057 2219 1905 1577 1567 1558 1635 1963 1772 1856 1793 1566 1120 1101 845 819 840 576 310 173 323 233 171 166 145 5 14 1
2498 2767 2576 2289 2480 2049 2084 1883 1972 1782 1721 1799 2120 1698 1878 1591 1315 1141 901 788 724 355 238 234 307 216 159 108 107 22 7 4
2249 2649 2764 2628 2460 2269 2020 1762 1969 2049 1983 1751 1957 2196 1797 1670 1318 1128 963 720 571 460 285 132 75 70 84 81 71 41 19 13
2097 2622 2777 2784 2496 2385 2180 2005 1600 2190 2150 2055 1950 2131 2147 1746 1321 1178 1087 917 525 431 123 21 20 28 49 49 73 26 6 0
1062 2337 2771 2643 2614 2370 2351 2236 2045 1725 2520 2410 2314 2134 2196 1913 1553 1374 1188 876 484 322 127 56 40 40 52 60 79 41 16 2
2 750 1302 2449 2443 2444 2457 2381 2185 1634 1851 2320 2203 2302 2176 2034 1706 1512 1189 898 590 464 249 142 43 8 95 57 35 28 16 4
0 0 0 2 1908 2154 2260 2193 2038 1691 1573 1673 2241 2286 2334 2058 1747 1583 1286 1044 778 543 314 172 34 5 44 62 9 18 11 11
52 172 129 33 4 1264 1987 2081 2111 1988 1716 1461 1763 2077 2100 2060 1893 1600 1385 1016 901 1030 414 199 79 3 12 8 10 27 27 10
173 235 369 544 352 50 39 1539 2112 1973 1895 1625 1378 1708 1793 1806 1748 1612 1319 1554 972 1155 470 139 83 5 21 0 0 0 0 6
81 79 83 524 704 345 96 405 1110 1560 1650 1444 1611 1148 1555 1734 1479 1409 1226 1256 1339 918 249 166 183 21 54 0 5 0 0 0
112 97 50 207 672 778 747 773 718 997 1211 1209 1079 1018 1190 1478 1451 1251 1255 1352 948 795 115 371 51 82 10 31 4 7 0 0
94 122 75 65 90 155 660 1135 1077 962 1005 1017 831 999 1162 1100 1310 1355 1025 777 695 159 308 127 132 112 63 41 28 0 1 0
49 12 43 159 186 110 69 297 1107 1039 640 718 301 496 788 664 1073 1286 1100 815 130 168 151 41 42 59 83 46 51 16 1 8
41 3 15 151 163 115 92 106 334 807 597 464 420 299 675 634 844 1213 889 487 124 160 100 61 65 97 42 31 14 2 7 9

GFSFLT2_con_mucape_132.txt.gz
CAPE
825 1134 1309 1491 1754 1839 1928 1954 1913 1841 1959 2047 2089 1894 1431 1054 645 703 880 822 1094 936 784 791 781 718 486 268 167 241 225 253
652 1033 1199 1301 1545 1791 1950 1696 1941 1885 1873 1988 1949 1716 1423 1033 449 511 273 817 749 840 789 718 703 575 415 273 54 110 210 222
572 865 1094 1143 1353 1690 1955 1680 1894 1858 1556 1936 1842 1695 1413 1054 638 388 319 800 870 867 814 778 754 601 359 229 30 138 164 222
679 709 907 1008 1128 1455 1813 1564 1769 1792 1542 1612 1849 1662 1407 1136 914 712 651 763 881 868 827 810 689 229 238 251 44 51 174 217
987 710 738 972 1184 1090 1581 1504 1494 1755 1318 1478 1814 1643 1448 1284 1088 809 506 638 792 808 673 533 347 200 170 87 54 64 148 178
1413 1274 916 990 1198 999 1056 1437 1232 1359 1238 1463 1436 1735 1480 1332 1069 821 553 519 405 411 432 431 223 170 138 91 66 110 193 195
1867 1807 1761 1175 1327 990 921 1136 1401 1061 1086 1427 1866 1578 1548 1382 1143 901 769 575 517 592 427 324 195 136 147 129 82 73 168 207
2236 2103 2108 1773 1385 1405 1112 1068 1043 1163 1222 1423 1607 2118 1773 1522 1306 1082 948 776 655 474 461 257 270 189 120 86 73 43 117 122
2422 2326 2293 2260 1840 1711 1784 1541 1234 1198 1240 1406 1938 1617 1692 1605 1403 1164 1065 923 673 630 491 211 226 110 98 87 29 38 24 27
2169 2525 2438 2403 2300 2019 1936 1911 1728 1579 1590 1419 1747 1805 1664 1615 1602 1360 1211 1105 865 754 491 228 104 61 55 35 33 18 23 27
1634 2522 2577 2530 2491 2386 2151 2053 1924 1947 2026 1879 1733 1908 1954 1678 1657 1548 1375 1165 928 734 546 294 77 44 31 34 9 28 34 26
1357 2368 2772 2646 2508 2408 2180 2207 2065 1911 1898 2068 1947 1862 1902 2010 1838 1666 1395 1198 1055 805 532 314 105 93 36 33 7 28 39 30
1173 2376 2836 2677 2221 2217 2069 2169 2050 2023 1889 1804 2039 2006 2031 1955 1912 1565 1492 1390 1231 792 531 430 191 104 39 30 18 10 20 15
13 22 246 1639 2180 2089 2042 1985 1917 2150 2066 1620 1846 2068 1946 1814 1662 1353 1385 1445 1319 1073 646 494 333 173 41 10 32 9 2 0
296 354 391 407 357 231 1578 1973 1862 1901 2076 2001 1524 1619 1944 1818 1329 1254 1227 1349 1092 1064 835 618 405 196 45 27 23 12 6 0
100 96 85 408 729 652 495 1638 1770 1759 1497 1408 1770 1545 1378 1550 1421 1322 1263 1249 1252 1159 987 738 487 150 58 18 1 3 6 0
150 161 169 204 220 524 651 407 284 895 1687 1567 1368 1322 1186 1294 1271 1144 1308 1298 1425 1292 991 881 644 162 77 121 4 8 12 1
22 109 328 289 245 149 133 266 805 1017 862 1309 1164 975 1012 1076 1050 1138 1419 1414 1362 1171 1008 915 566 219 99 160 21 9 35 9
23 92 324 493 406 282 182 61 135 820 927 909 909 864 949 849 910 1004 1158 1234 1123 1000 688 791 757 70 90 82 45 30 18 28
49 24 5 132 170 137 144 55 25 121 396 581 741 425 597 565 769 803 849 996 1080 865 604 525 151 80 126 86 43 104 62 19